Wetterdaten: Sonntag, 15.12.2019
Datum Zeit Temp. Aussen Temp. o. S. Temp +5cm Feuchte Auss Luftdruck Regen Sonnenschein Regendauer Solar Windben Empfang
15.12.2019 00:00 6,1 C 5,6 C 5,0 C 89 % 999,2 hPa 0,0 l/m 0 min 0 min 0 W/m 16,1 km/h (3 Bft) 100,00 %
15.12.2019 00:02 6,1 C 5,6 C 5,0 C 90 % 999,2 hPa 0,0 l/m 0 min 0 min 0 W/m 22,5 km/h (4 Bft) 100,00 %
15.12.2019 00:04 6,1 C 5,6 C 5,0 C 90 % 999,2 hPa 0,0 l/m 0 min 0 min 0 W/m 16,1 km/h (3 Bft) 100,00 %
15.12.2019 00:08 6,1 C 5,6 C 5,0 C 90 % 999,1 hPa 0,0 l/m 0 min 0 min 0 W/m 16,1 km/h (3 Bft) 100,00 %
15.12.2019 00:10 6,2 C 5,6 C 5,0 C 90 % 999,1 hPa 0,0 l/m 0 min 0 min 0 W/m 22,5 km/h (4 Bft) 100,00 %
15.12.2019 00:12 6,2 C 5,6 C 5,0 C 90 % 999,1 hPa 0,0 l/m 0 min 0 min 0 W/m 12,9 km/h (3 Bft) 97,83 %
15.12.2019 00:14 6,2 C 5,6 C 5,0 C 89 % 999,1 hPa 0,0 l/m 0 min 0 min 0 W/m 16,1 km/h (3 Bft) 100,00 %
15.12.2019 00:16 6,2 C 5,6 C 5,0 C 89 % 999,2 hPa 0,0 l/m 0 min 0 min 0 W/m 16,1 km/h (3 Bft) 100,00 %
15.12.2019 00:18 6,2 C 5,6 C 5,0 C 89 % 999,2 hPa 0,0 l/m 0 min 0 min 0 W/m 16,1 km/h (3 Bft) 100,00 %
15.12.2019 00:20 6,1 C 5,6 C 5,0 C 90 % 999,2 hPa 0,0 l/m 0 min 0 min 0 W/m 19,3 km/h (3 Bft) 100,00 %
15.12.2019 00:22 6,2 C 5,6 C 5,0 C 90 % 999,1 hPa 0,0 l/m 0 min 0 min 0 W/m 22,5 km/h (4 Bft) 100,00 %
15.12.2019 00:24 6,2 C 5,6 C 5,0 C 90 % 999,0 hPa 0,0 l/m 0 min 0 min 0 W/m 12,9 km/h (3 Bft) 100,00 %
15.12.2019 00:26 6,2 C 5,6 C 5,0 C 90 % 999,0 hPa 0,0 l/m 0 min 0 min 0 W/m 16,1 km/h (3 Bft) 97,87 %
15.12.2019 00:28 6,2 C 5,6 C 4,4 C 90 % 998,8 hPa 0,0 l/m 0 min 0 min 0 W/m 22,5 km/h (4 Bft) 100,00 %
15.12.2019 00:30 6,2 C 5,6 C 5,0 C 90 % 998,8 hPa 0,0 l/m 0 min 0 min 0 W/m 19,3 km/h (3 Bft) 100,00 %
15.12.2019 00:32 6,2 C 5,6 C 5,0 C 90 % 998,7 hPa 0,0 l/m 0 min 0 min 0 W/m 19,3 km/h (3 Bft) 100,00 %
15.12.2019 00:34 6,2 C 5,6 C 5,0 C 90 % 998,6 hPa 0,0 l/m 0 min 0 min 0 W/m 22,5 km/h (4 Bft) 100,00 %
15.12.2019 00:36 6,2 C 5,6 C 5,0 C 90 % 998,5 hPa 0,0 l/m 0 min 0 min 0 W/m 22,5 km/h (4 Bft) 100,00 %
15.12.2019 00:38 6,2 C 5,6 C 5,0 C 90 % 998,5 hPa 0,0 l/m 0 min 0 min 0 W/m 19,3 km/h (3 Bft) 100,00 %
15.12.2019 00:40 6,2 C 5,6 C 5,0 C 90 % 998,3 hPa 0,0 l/m 0 min 0 min 0 W/m 22,5 km/h (4 Bft) 100,00 %
15.12.2019 00:42 6,2 C 5,6 C 5,0 C 90 % 998,2 hPa 0,0 l/m 0 min 0 min 0 W/m 22,5 km/h (4 Bft) 100,00 %
15.12.2019 00:44 6,2 C 5,6 C 5,0 C 90 % 998,2 hPa 0,0 l/m 0 min 0 min 0 W/m 19,3 km/h (3 Bft) 97,87 %
15.12.2019 00:46 6,2 C 5,6 C 5,0 C 90 % 998,1 hPa 0,0 l/m 0 min 0 min 0 W/m 19,3 km/h (3 Bft) 97,87 %
15.12.2019 00:48 6,2 C 5,6 C 5,0 C 90 % 998,1 hPa 0,0 l/m 0 min 0 min 0 W/m 19,3 km/h (3 Bft) 100,00 %
15.12.2019 00:50 6,3 C 5,6 C 5,0 C 90 % 998,1 hPa 0,0 l/m 0 min 0 min 0 W/m 22,5 km/h (4 Bft) 100,00 %
15.12.2019 00:52 6,3 C 5,6 C 5,0 C 90 % 998,1 hPa 0,0 l/m 0 min 0 min 0 W/m 22,5 km/h (4 Bft) 97,87 %
15.12.2019 00:54 6,3 C 5,6 C 5,0 C 90 % 997,9 hPa 0,0 l/m 0 min 0 min 0 W/m 22,5 km/h (4 Bft) 97,87 %
15.12.2019 00:56 6,3 C 5,6 C 5,0 C 90 % 997,9 hPa 0,0 l/m 0 min 0 min 0 W/m 16,1 km/h (3 Bft) 93,62 %
15.12.2019 00:58 6,3 C 5,6 C 5,0 C 90 % 997,8 hPa 0,0 l/m 0 min 0 min 0 W/m 22,5 km/h (4 Bft) 97,96 %
15.12.2019 01:00 6,3 C 5,6 C 5,0 C 90 % 997,8 hPa 0,0 l/m 0 min 0 min 0 W/m 16,1 km/h (3 Bft) 95,74 %
15.12.2019 01:02 6,3 C 5,6 C 5,0 C 90 % 997,6 hPa 0,0 l/m 0 min 0 min 0 W/m 16,1 km/h (3 Bft) 95,74 %
15.12.2019 01:04 6,3 C 5,6 C 5,0 C 90 % 997,6 hPa 0,0 l/m 0 min 0 min 0 W/m 16,1 km/h (3 Bft) 95,74 %
15.12.2019 01:06 6,3 C 5,6 C 5,0 C 89 % 997,6 hPa 0,0 l/m 0 min 0 min 0 W/m 25,7 km/h (4 Bft) 93,62 %
15.12.2019 01:08 6,3 C 5,6 C 5,0 C 89 % 997,5 hPa 0,0 l/m 0 min 0 min 0 W/m 16,1 km/h (3 Bft) 95,74 %
15.12.2019 01:10 6,3 C 5,6 C 5,0 C 89 % 997,5 hPa 0,0 l/m 0 min 0 min 0 W/m 22,5 km/h (4 Bft) 95,74 %
15.12.2019 01:12 6,3 C 5,6 C 5,0 C 89 % 997,5 hPa 0,0 l/m 0 min 0 min 0 W/m 19,3 km/h (3 Bft) 93,48 %
15.12.2019 01:14 6,3 C 5,6 C 4,4 C 89 % 997,4 hPa 0,0 l/m 0 min 0 min 0 W/m 19,3 km/h (3 Bft) 95,74 %
15.12.2019 01:16 6,3 C 5,6 C 4,4 C 89 % 997,4 hPa 0,0 l/m 0 min 0 min 0 W/m 32,2 km/h (5 Bft) 95,74 %
15.12.2019 01:18 6,2 C 5,6 C 4,4 C 89 % 997,4 hPa 0,0 l/m 0 min 0 min 0 W/m 25,7 km/h (4 Bft) 95,74 %
15.12.2019 01:20 6,2 C 5,6 C 4,4 C 89 % 997,2 hPa 0,0 l/m 0 min 0 min 0 W/m 22,5 km/h (4 Bft) 95,74 %
15.12.2019 01:22 6,2 C 5,0 C 4,4 C 89 % 997,1 hPa 0,0 l/m 0 min 0 min 0 W/m 19,3 km/h (3 Bft) 95,74 %
15.12.2019 01:24 6,2 C 5,6 C 4,4 C 89 % 997,2 hPa 0,0 l/m 0 min 0 min 0 W/m 29,0 km/h (5 Bft) 95,65 %
15.12.2019 01:26 6,1 C 5,6 C 4,4 C 89 % 997,2 hPa 0,0 l/m 0 min 0 min 0 W/m 25,7 km/h (4 Bft) 95,24 %
15.12.2019 01:28 6,1 C 5,0 C 4,4 C 89 % 997,2 hPa 0,0 l/m 0 min 0 min 0 W/m 25,7 km/h (4 Bft) 93,75 %
15.12.2019 01:30 6,1 C 5,0 C 4,4 C 89 % 997,1 hPa 0,0 l/m 0 min 0 min 0 W/m 16,1 km/h (3 Bft) 93,75 %
15.12.2019 01:32 6,1 C 5,0 C 4,4 C 89 % 997,1 hPa 0,0 l/m 0 min 0 min 0 W/m 19,3 km/h (3 Bft) 95,83 %
15.12.2019 01:34 6,1 C 5,0 C 4,4 C 89 % 997,0 hPa 0,0 l/m 0 min 0 min 0 W/m 22,5 km/h (4 Bft) 97,92 %
15.12.2019 01:36 6,1 C 5,0 C 4,4 C 89 % 996,9 hPa 0,0 l/m 0 min 0 min 0 W/m 19,3 km/h (3 Bft) 97,87 %
15.12.2019 01:38 6,0 C 5,0 C 4,4 C 89 % 996,9 hPa 0,0 l/m 0 min 0 min 0 W/m 16,1 km/h (3 Bft) 95,74 %
15.12.2019 01:40 6,0 C 5,6 C 4,4 C 89 % 996,9 hPa 0,0 l/m 0 min 0 min 0 W/m 22,5 km/h (4 Bft) 97,87 %
15.12.2019 01:42 6,0 C 5,6 C 4,4 C 89 % 996,8 hPa 0,0 l/m 0 min 0 min 0 W/m 22,5 km/h (4 Bft) 95,74 %
15.12.2019 01:44 6,0 C 5,6 C 4,4 C 89 % 996,8 hPa 0,0 l/m 0 min 0 min 0 W/m 19,3 km/h (3 Bft) 97,87 %
15.12.2019 01:46 6,0 C 5,6 C 4,4 C 89 % 996,7 hPa 0,0 l/m 0 min 0 min 0 W/m 25,7 km/h (4 Bft) 95,65 %
15.12.2019 01:48 6,0 C 5,6 C 4,4 C 89 % 996,6 hPa 0,0 l/m 0 min 0 min 0 W/m 19,3 km/h (3 Bft) 97,62 %
15.12.2019 01:50 6,0 C 5,6 C 4,4 C 89 % 996,6 hPa 0,0 l/m 0 min 0 min 0 W/m 16,1 km/h (3 Bft) 93,75 %
15.12.2019 01:52 6,0 C 5,6 C 4,4 C 89 % 996,5 hPa 0,0 l/m 0 min 0 min 0 W/m 22,5 km/h (4 Bft) 95,83 %
15.12.2019 01:54 6,0 C 5,6 C 4,4 C 89 % 996,4 hPa 0,0 l/m 0 min 0 min 0 W/m 35,4 km/h (5 Bft) 95,74 %
15.12.2019 01:56 6,0 C 5,6 C 4,4 C 89 % 996,5 hPa 0,0 l/m 0 min 0 min 0 W/m 25,7 km/h (4 Bft) 95,65 %
15.12.2019 01:58 6,0 C 5,6 C 4,4 C 89 % 996,5 hPa 0,0 l/m 0 min 0 min 0 W/m 25,7 km/h (4 Bft) 95,74 %
15.12.2019 02:00 6,0 C 5,6 C 5,0 C 89 % 996,5 hPa 0,0 l/m 0 min 0 min 0 W/m 25,7 km/h (4 Bft) 97,92 %
15.12.2019 02:02 6,0 C 5,6 C 4,4 C 89 % 996,4 hPa 0,0 l/m 0 min 0 min 0 W/m 25,7 km/h (4 Bft) 97,96 %
15.12.2019 02:04 6,0 C 5,6 C 4,4 C 90 % 996,4 hPa 0,0 l/m 0 min 0 min 0 W/m 25,7 km/h (4 Bft) 97,87 %
15.12.2019 02:06 6,1 C 5,6 C 5,0 C 90 % 996,4 hPa 0,0 l/m 0 min 0 min 0 W/m 29,0 km/h (5 Bft) 97,87 %
15.12.2019 02:08 6,1 C 5,6 C 4,4 C 90 % 996,4 hPa 0,0 l/m 0 min 0 min 0 W/m 19,3 km/h (3 Bft) 97,87 %
15.12.2019 02:10 6,1 C 5,6 C 4,4 C 90 % 996,4 hPa 0,0 l/m 0 min 0 min 0 W/m 19,3 km/h (3 Bft) 97,56 %
15.12.2019 02:12 6,1 C 5,6 C 4,4 C 90 % 996,3 hPa 0,0 l/m 0 min 0 min 0 W/m 25,7 km/h (4 Bft) 97,87 %
15.12.2019 02:14 6,1 C 5,6 C 4,4 C 90 % 996,2 hPa 0,0 l/m 0 min 0 min 0 W/m 32,2 km/h (5 Bft) 97,87 %
15.12.2019 02:16 6,1 C 5,6 C 5,0 C 90 % 996,3 hPa 0,0 l/m 0 min 0 min 0 W/m 25,7 km/h (4 Bft) 97,87 %
15.12.2019 02:18 6,1 C 5,6 C 4,4 C 90 % 996,3 hPa 0,0 l/m 0 min 0 min 0 W/m 16,1 km/h (3 Bft) 97,87 %
15.12.2019 02:20 6,1 C 5,6 C 5,0 C 90 % 996,2 hPa 0,0 l/m 0 min 0 min 0 W/m 25,7 km/h (4 Bft) 97,83 %
15.12.2019 02:22 6,1 C 5,6 C 4,4 C 90 % 996,2 hPa 0,0 l/m 0 min 0 min 0 W/m 29,0 km/h (5 Bft) 97,92 %
15.12.2019 02:24 6,1 C 5,6 C 4,4 C 90 % 996,2 hPa 0,0 l/m 0 min 0 min 0 W/m 29,0 km/h (5 Bft) 97,92 %
15.12.2019 02:26 6,1 C 5,6 C 5,0 C 90 % 996,1 hPa 0,0 l/m 0 min 0 min 0 W/m 25,7 km/h (4 Bft) 97,87 %
15.12.2019 02:28 6,1 C 5,6 C 4,4 C 90 % 996,1 hPa 0,0 l/m 0 min 0 min 0 W/m 19,3 km/h (3 Bft) 97,87 %
15.12.2019 02:30 6,1 C 5,6 C 5,0 C 90 % 996,1 hPa 0,0 l/m 0 min 0 min 0 W/m 35,4 km/h (5 Bft) 97,87 %
15.12.2019 02:32 6,1 C 5,6 C 5,0 C 90 % 995,9 hPa 0,0 l/m 0 min 0 min 0 W/m 22,5 km/h (4 Bft) 95,65 %
15.12.2019 02:34 6,1 C 5,6 C 5,0 C 90 % 995,9 hPa 0,0 l/m 0 min 0 min 0 W/m 25,7 km/h (4 Bft) 95,83 %
15.12.2019 02:36 6,1 C 5,6 C 5,0 C 90 % 995,8 hPa 0,0 l/m 0 min 0 min 0 W/m 22,5 km/h (4 Bft) 95,83 %
15.12.2019 02:38 6,1 C 5,6 C 5,0 C 90 % 995,7 hPa 0,0 l/m 0 min 0 min 0 W/m 29,0 km/h (5 Bft) 97,87 %
15.12.2019 02:40 6,2 C 5,6 C 5,0 C 90 % 995,7 hPa 0,0 l/m 0 min 0 min 0 W/m 32,2 km/h (5 Bft) 97,92 %
15.12.2019 02:42 6,2 C 5,6 C 5,0 C 90 % 995,6 hPa 0,0 l/m 0 min 0 min 0 W/m 25,7 km/h (4 Bft) 100,00 %
15.12.2019 02:44 6,2 C 5,6 C 5,0 C 90 % 995,5 hPa 0,0 l/m 0 min 0 min 0 W/m 29,0 km/h (5 Bft) 100,00 %
15.12.2019 02:46 6,2 C 5,6 C 5,0 C 90 % 995,5 hPa 0,0 l/m 0 min 0 min 0 W/m 22,5 km/h (4 Bft) 97,87 %
15.12.2019 02:48 6,2 C 5,6 C 5,0 C 90 % 995,4 hPa 0,0 l/m 0 min 0 min 0 W/m 29,0 km/h (5 Bft) 100,00 %
15.12.2019 02:50 6,3 C 6,1 C 5,0 C 90 % 995,4 hPa 0,0 l/m 0 min 0 min 0 W/m 35,4 km/h (5 Bft) 100,00 %
15.12.2019 02:52 6,3 C 5,6 C 5,0 C 90 % 995,4 hPa 0,0 l/m 0 min 2 min 0 W/m 25,7 km/h (4 Bft) 100,00 %
15.12.2019 02:54 6,3 C 5,6 C 5,0 C 90 % 995,4 hPa 0,0 l/m 0 min 0 min 0 W/m 25,7 km/h (4 Bft) 97,87 %
15.12.2019 02:56 6,3 C 5,0 C 5,0 C 90 % 995,5 hPa 0,0 l/m 0 min 0 min 0 W/m 22,5 km/h (4 Bft) 100,00 %
15.12.2019 02:58 6,4 C 5,0 C 4,4 C 90 % 995,5 hPa 0,0 l/m 0 min 2 min 0 W/m 25,7 km/h (4 Bft) 100,00 %
15.12.2019 03:00 6,4 C 4,4 C 4,4 C 90 % 995,4 hPa 0,2 l/m 0 min 2 min 0 W/m 25,7 km/h (4 Bft) 100,00 %
15.12.2019 03:02 6,4 C 4,4 C 3,9 C 90 % 995,4 hPa 0,0 l/m 0 min 2 min 0 W/m 22,5 km/h (4 Bft) 97,67 %
15.12.2019 03:04 6,4 C 4,4 C 3,9 C 91 % 995,3 hPa 0,0 l/m 0 min 2 min 0 W/m 35,4 km/h (5 Bft) 100,00 %
15.12.2019 03:06 6,4 C 4,4 C 3,9 C 91 % 995,3 hPa 0,0 l/m 0 min 2 min 0 W/m 35,4 km/h (5 Bft) 97,87 %
15.12.2019 03:08 6,4 C 4,4 C 3,9 C 91 % 995,3 hPa 0,0 l/m 0 min 2 min 0 W/m 29,0 km/h (5 Bft) 100,00 %
15.12.2019 03:10 6,3 C 4,4 C 3,9 C 92 % 995,2 hPa 0,2 l/m 0 min 2 min 0 W/m 29,0 km/h (5 Bft) 97,92 %
15.12.2019 03:12 6,3 C 4,4 C 3,9 C 92 % 995,2 hPa 0,0 l/m 0 min 2 min 0 W/m 25,7 km/h (4 Bft) 100,00 %
15.12.2019 03:14 6,3 C 4,4 C 3,9 C 92 % 995,1 hPa 0,2 l/m 0 min 2 min 0 W/m 19,3 km/h (3 Bft) 100,00 %
15.12.2019 03:16 6,3 C 4,4 C 3,9 C 93 % 994,9 hPa 0,0 l/m 0 min 2 min 0 W/m 29,0 km/h (5 Bft) 100,00 %
15.12.2019 03:18 6,2 C 4,4 C 3,9 C 93 % 994,9 hPa 0,0 l/m 0 min 2 min 0 W/m 32,2 km/h (5 Bft) 100,00 %
15.12.2019 03:20 6,2 C 4,4 C 3,9 C 93 % 994,8 hPa 0,0 l/m 0 min 2 min 0 W/m 29,0 km/h (5 Bft) 100,00 %
15.12.2019 03:22 6,2 C 4,4 C 3,9 C 93 % 994,9 hPa 0,0 l/m 0 min 2 min 0 W/m 38,6 km/h (5 Bft) 100,00 %
15.12.2019 03:24 6,1 C 4,4 C 3,9 C 94 % 994,7 hPa 0,2 l/m 0 min 0 min 0 W/m 29,0 km/h (5 Bft) 97,96 %
15.12.2019 03:26 6,1 C 4,4 C 3,9 C 94 % 994,7 hPa 0,0 l/m 0 min 0 min 0 W/m 25,7 km/h (4 Bft) 97,92 %
15.12.2019 03:28 6,1 C 5,0 C 3,9 C 94 % 994,6 hPa 0,0 l/m 0 min 0 min 0 W/m 29,0 km/h (5 Bft) 96,15 %
15.12.2019 03:30 6,1 C 5,0 C 3,9 C 94 % 994,5 hPa 0,0 l/m 0 min 0 min 0 W/m 22,5 km/h (4 Bft) 97,62 %
15.12.2019 03:32 6,1 C 5,0 C 4,4 C 94 % 994,5 hPa 0,0 l/m 0 min 0 min 0 W/m 22,5 km/h (4 Bft) 97,67 %
15.12.2019 03:34 6,1 C 5,0 C 4,4 C 94 % 994,5 hPa 0,0 l/m 0 min 0 min 0 W/m 19,3 km/h (3 Bft) 98,00 %
15.12.2019 03:36 6,1 C 5,0 C 4,4 C 94 % 994,4 hPa 0,0 l/m 0 min 0 min 0 W/m 16,1 km/h (3 Bft) 97,87 %
15.12.2019 03:38 6,1 C 5,0 C 4,4 C 95 % 994,5 hPa 0,0 l/m 0 min 0 min 0 W/m 22,5 km/h (4 Bft) 97,87 %
15.12.2019 03:40 6,1 C 5,0 C 4,4 C 95 % 994,4 hPa 0,0 l/m 0 min 0 min 0 W/m 25,7 km/h (4 Bft) 97,96 %
15.12.2019 03:42 6,1 C 5,0 C 4,4 C 95 % 994,2 hPa 0,0 l/m 0 min 0 min 0 W/m 25,7 km/h (4 Bft) 97,92 %
15.12.2019 03:44 6,0 C 5,0 C 4,4 C 95 % 994,1 hPa 0,0 l/m 0 min 0 min 0 W/m 35,4 km/h (5 Bft) 95,83 %
15.12.2019 03:46 6,1 C 5,0 C 4,4 C 95 % 994,1 hPa 0,0 l/m 0 min 0 min 0 W/m 32,2 km/h (5 Bft) 95,83 %
15.12.2019 03:48 6,0 C 5,0 C 4,4 C 95 % 994,2 hPa 0,0 l/m 0 min 0 min 0 W/m 25,7 km/h (4 Bft) 91,67 %
15.12.2019 03:50 6,0 C 5,0 C 4,4 C 95 % 994,2 hPa 0,0 l/m 0 min 0 min 0 W/m 22,5 km/h (4 Bft) 95,83 %
15.12.2019 03:52 6,1 C 5,0 C 4,4 C 95 % 994,1 hPa 0,0 l/m 0 min 0 min 0 W/m 25,7 km/h (4 Bft) 95,83 %
15.12.2019 03:54 6,1 C 5,0 C 4,4 C 95 % 994,1 hPa 0,0 l/m 0 min 0 min 0 W/m 25,7 km/h (4 Bft) 97,92 %
15.12.2019 03:56 6,1 C 5,0 C 4,4 C 95 % 994,0 hPa 0,0 l/m 0 min 0 min 0 W/m 19,3 km/h (3 Bft) 95,83 %
15.12.2019 03:58 6,1 C 5,0 C 4,4 C 95 % 993,9 hPa 0,0 l/m 0 min 0 min 0 W/m 22,5 km/h (4 Bft) 95,74 %
15.12.2019 04:00 6,1 C 5,0 C 4,4 C 95 % 993,9 hPa 0,0 l/m 0 min 0 min 0 W/m 25,7 km/h (4 Bft) 94,00 %
15.12.2019 04:02 6,1 C 5,0 C 4,4 C 95 % 993,8 hPa 0,0 l/m 0 min 0 min 0 W/m 19,3 km/h (3 Bft) 100,00 %
15.12.2019 04:04 6,1 C 5,0 C 4,4 C 95 % 993,9 hPa 0,0 l/m 0 min 0 min 0 W/m 19,3 km/h (3 Bft) 97,83 %
15.12.2019 04:06 6,1 C 5,0 C 4,4 C 95 % 993,9 hPa 0,0 l/m 0 min 0 min 0 W/m 22,5 km/h (4 Bft) 93,62 %
15.12.2019 04:08 6,1 C 5,0 C 4,4 C 96 % 993,8 hPa 0,0 l/m 0 min 0 min 0 W/m 25,7 km/h (4 Bft) 97,37 %
15.12.2019 04:10 6,1 C 5,0 C 4,4 C 96 % 993,8 hPa 0,0 l/m 0 min 0 min 0 W/m 29,0 km/h (5 Bft) 97,87 %
15.12.2019 04:12 6,2 C 5,6 C 4,4 C 96 % 993,8 hPa 0,0 l/m 0 min 0 min 0 W/m 19,3 km/h (3 Bft) 97,87 %
15.12.2019 04:14 6,2 C 5,6 C 4,4 C 96 % 993,7 hPa 0,0 l/m 0 min 0 min 0 W/m 16,1 km/h (3 Bft) 92,86 %
15.12.2019 04:16 6,2 C 5,6 C 4,4 C 96 % 993,7 hPa 0,0 l/m 0 min 0 min 0 W/m 22,5 km/h (4 Bft) 97,87 %
15.12.2019 04:18 6,2 C 5,6 C 4,4 C 96 % 993,7 hPa 0,0 l/m 0 min 0 min 0 W/m 22,5 km/h (4 Bft) 97,92 %
15.12.2019 04:20 6,2 C 5,6 C 5,0 C 96 % 993,6 hPa 0,0 l/m 0 min 0 min 0 W/m 16,1 km/h (3 Bft) 97,92 %
15.12.2019 04:22 6,3 C 5,6 C 5,0 C 96 % 993,6 hPa 0,0 l/m 0 min 0 min 0 W/m 16,1 km/h (3 Bft) 93,75 %
15.12.2019 04:24 6,3 C 5,6 C 5,0 C 96 % 993,5 hPa 0,0 l/m 0 min 0 min 0 W/m 16,1 km/h (3 Bft) 95,83 %
15.12.2019 04:26 6,3 C 5,6 C 5,0 C 96 % 993,4 hPa 0,0 l/m 0 min 0 min 0 W/m 16,1 km/h (3 Bft) 95,74 %
15.12.2019 04:28 6,3 C 5,6 C 5,0 C 96 % 993,4 hPa 0,0 l/m 0 min 0 min 0 W/m 22,5 km/h (4 Bft) 97,92 %
15.12.2019 04:30 6,4 C 5,6 C 5,0 C 96 % 993,3 hPa 0,0 l/m 0 min 0 min 0 W/m 19,3 km/h (3 Bft) 95,83 %
15.12.2019 04:32 6,4 C 6,1 C 5,0 C 96 % 993,4 hPa 0,0 l/m 0 min 0 min 0 W/m 19,3 km/h (3 Bft) 97,96 %
15.12.2019 04:34 6,5 C 6,1 C 5,0 C 96 % 993,4 hPa 0,0 l/m 0 min 0 min 0 W/m 22,5 km/h (4 Bft) 97,62 %
15.12.2019 04:36 6,6 C 6,1 C 5,6 C 96 % 993,4 hPa 0,0 l/m 0 min 0 min 0 W/m 32,2 km/h (5 Bft) 95,24 %
15.12.2019 04:38 6,7 C 6,1 C 5,6 C 96 % 993,3 hPa 0,0 l/m 0 min 0 min 0 W/m 16,1 km/h (3 Bft) 98,18 %
15.12.2019 04:40 6,7 C 6,1 C 5,6 C 97 % 993,2 hPa 0,0 l/m 0 min 2 min 0 W/m 16,1 km/h (3 Bft) 97,83 %
15.12.2019 04:42 6,8 C 6,7 C 5,6 C 97 % 993,2 hPa 0,0 l/m 0 min 0 min 0 W/m 22,5 km/h (4 Bft) 97,67 %
15.12.2019 04:44 6,9 C 6,7 C 5,6 C 97 % 993,2 hPa 0,0 l/m 0 min 0 min 0 W/m 16,1 km/h (3 Bft) 95,83 %
15.12.2019 04:46 6,9 C 6,7 C 5,6 C 97 % 993,1 hPa 0,0 l/m 0 min 2 min 0 W/m 16,1 km/h (3 Bft) 96,23 %
15.12.2019 04:48 7,0 C 6,7 C 5,6 C 97 % 993,1 hPa 0,0 l/m 0 min 2 min 0 W/m 19,3 km/h (3 Bft) 97,87 %
15.12.2019 04:50 7,1 C 6,7 C 5,6 C 97 % 993,0 hPa 0,0 l/m 0 min 2 min 0 W/m 16,1 km/h (3 Bft) 93,88 %
15.12.2019 04:52 7,2 C 6,7 C 5,6 C 97 % 993,0 hPa 0,0 l/m 0 min 2 min 0 W/m 22,5 km/h (4 Bft) 100,00 %
15.12.2019 04:54 7,2 C 6,7 C 5,6 C 97 % 993,0 hPa 0,0 l/m 0 min 2 min 0 W/m 22,5 km/h (4 Bft) 100,00 %
15.12.2019 04:56 7,3 C 6,7 C 5,6 C 97 % 993,0 hPa 0,0 l/m 0 min 2 min 0 W/m 22,5 km/h (4 Bft) 100,00 %
15.12.2019 04:58 7,4 C 6,7 C 5,6 C 97 % 993,0 hPa 0,0 l/m 0 min 2 min 0 W/m 16,1 km/h (3 Bft) 100,00 %
15.12.2019 05:00 7,4 C 6,7 C 5,6 C 97 % 992,9 hPa 0,0 l/m 0 min 2 min 0 W/m 12,9 km/h (3 Bft) 100,00 %
15.12.2019 05:02 7,4 C 6,7 C 5,6 C 97 % 993,0 hPa 0,0 l/m 0 min 2 min 0 W/m 16,1 km/h (3 Bft) 100,00 %
15.12.2019 05:04 7,5 C 6,7 C 6,1 C 97 % 992,9 hPa 0,0 l/m 0 min 0 min 0 W/m 16,1 km/h (3 Bft) 100,00 %
15.12.2019 05:06 7,6 C 6,7 C 6,1 C 97 % 992,9 hPa 0,0 l/m 0 min 2 min 0 W/m 19,3 km/h (3 Bft) 96,00 %
15.12.2019 05:08 7,6 C 6,7 C 6,1 C 97 % 992,9 hPa 0,0 l/m 0 min 2 min 0 W/m 29,0 km/h (5 Bft) 97,87 %
15.12.2019 05:10 7,7 C 6,7 C 6,1 C 97 % 992,8 hPa 0,2 l/m 0 min 2 min 0 W/m 25,7 km/h (4 Bft) 97,87 %
15.12.2019 05:12 7,7 C 6,7 C 6,1 C 97 % 992,8 hPa 0,0 l/m 0 min 2 min 0 W/m 19,3 km/h (3 Bft) 100,00 %
15.12.2019 05:14 7,8 C 7,2 C 6,1 C 97 % 992,9 hPa 0,0 l/m 0 min 2 min 0 W/m 25,7 km/h (4 Bft) 95,74 %
15.12.2019 05:16 7,9 C 7,2 C 6,7 C 97 % 992,8 hPa 0,0 l/m 0 min 2 min 0 W/m 22,5 km/h (4 Bft) 97,96 %
15.12.2019 05:18 8,0 C 7,2 C 6,7 C 98 % 992,8 hPa 0,0 l/m 0 min 2 min 0 W/m 22,5 km/h (4 Bft) 97,87 %
15.12.2019 05:20 8,1 C 7,2 C 6,7 C 98 % 992,7 hPa 0,0 l/m 0 min 2 min 0 W/m 29,0 km/h (5 Bft) 97,87 %
15.12.2019 05:22 8,2 C 7,2 C 6,7 C 97 % 992,7 hPa 0,0 l/m 0 min 2 min 0 W/m 22,5 km/h (4 Bft) 95,74 %
15.12.2019 05:24 8,2 C 7,2 C 6,7 C 97 % 992,6 hPa 0,0 l/m 0 min 2 min 0 W/m 32,2 km/h (5 Bft) 97,87 %
15.12.2019 05:26 8,3 C 7,2 C 6,7 C 97 % 992,6 hPa 0,0 l/m 0 min 2 min 0 W/m 32,2 km/h (5 Bft) 97,87 %
15.12.2019 05:28 8,3 C 7,2 C 6,7 C 98 % 992,7 hPa 0,2 l/m 0 min 2 min 0 W/m 25,7 km/h (4 Bft) 98,11 %
15.12.2019 05:30 8,4 C 7,2 C 6,7 C 98 % 992,6 hPa 0,0 l/m 0 min 2 min 0 W/m 22,5 km/h (4 Bft) 95,74 %
15.12.2019 05:32 8,5 C 7,2 C 6,7 C 98 % 992,6 hPa 0,0 l/m 0 min 0 min 0 W/m 19,3 km/h (3 Bft) 97,87 %
15.12.2019 05:34 8,6 C 7,8 C 6,7 C 98 % 992,6 hPa 0,0 l/m 0 min 0 min 0 W/m 25,7 km/h (4 Bft) 94,74 %
15.12.2019 05:36 8,6 C 7,8 C 7,2 C 98 % 992,6 hPa 0,0 l/m 0 min 0 min 0 W/m 29,0 km/h (5 Bft) 97,87 %
15.12.2019 05:38 8,6 C 7,8 C 7,2 C 98 % 992,5 hPa 0,0 l/m 0 min 0 min 0 W/m 25,7 km/h (4 Bft) 97,83 %
15.12.2019 05:40 8,7 C 7,8 C 7,2 C 98 % 992,4 hPa 0,0 l/m 0 min 0 min 0 W/m 22,5 km/h (4 Bft) 95,74 %
15.12.2019 05:42 8,7 C 7,8 C 7,2 C 98 % 992,6 hPa 0,0 l/m 0 min 0 min 0 W/m 29,0 km/h (5 Bft) 95,74 %
15.12.2019 05:44 8,8 C 7,8 C 7,2 C 98 % 992,6 hPa 0,0 l/m 0 min 0 min 0 W/m 29,0 km/h (5 Bft) 98,00 %
15.12.2019 05:46 8,8 C 7,8 C 7,2 C 98 % 992,7 hPa 0,0 l/m 0 min 0 min 0 W/m 16,1 km/h (3 Bft) 98,00 %
15.12.2019 05:48 8,8 C 7,8 C 7,2 C 98 % 992,6 hPa 0,0 l/m 0 min 0 min 0 W/m 38,6 km/h (5 Bft) 97,87 %
15.12.2019 05:50 8,8 C 7,8 C 7,2 C 98 % 992,5 hPa 0,0 l/m 0 min 0 min 0 W/m 19,3 km/h (3 Bft) 97,87 %
15.12.2019 05:52 8,9 C 7,8 C 7,2 C 98 % 992,5 hPa 0,0 l/m 0 min 0 min 0 W/m 19,3 km/h (3 Bft) 97,87 %
15.12.2019 05:54 8,9 C 7,8 C 7,2 C 98 % 992,4 hPa 0,0 l/m 0 min 0 min 0 W/m 29,0 km/h (5 Bft) 97,22 %
15.12.2019 05:56 8,9 C 8,3 C 7,2 C 98 % 992,5 hPa 0,0 l/m 0 min 0 min 0 W/m 41,8 km/h (6 Bft) 91,49 %
15.12.2019 05:58 9,0 C 8,3 C 7,2 C 98 % 992,4 hPa 0,0 l/m 0 min 0 min 0 W/m 25,7 km/h (4 Bft) 96,30 %
15.12.2019 06:00 9,1 C 8,3 C 7,2 C 98 % 992,5 hPa 0,0 l/m 0 min 0 min 0 W/m 29,0 km/h (5 Bft) 96,00 %
15.12.2019 06:02 9,1 C 8,3 C 7,2 C 98 % 992,5 hPa 0,0 l/m 0 min 0 min 0 W/m 19,3 km/h (3 Bft) 95,65 %
15.12.2019 06:04 9,1 C 8,3 C 7,8 C 98 % 992,4 hPa 0,0 l/m 0 min 0 min 0 W/m 57,9 km/h (7 Bft) 96,00 %
15.12.2019 06:06 9,2 C 8,3 C 7,8 C 98 % 992,5 hPa 0,0 l/m 0 min 0 min 0 W/m 29,0 km/h (5 Bft) 97,87 %
15.12.2019 06:08 9,2 C 8,3 C 7,8 C 98 % 992,5 hPa 0,0 l/m 0 min 0 min 0 W/m 35,4 km/h (5 Bft) 97,37 %
15.12.2019 06:10 9,3 C 8,3 C 7,8 C 97 % 992,7 hPa 0,0 l/m 0 min 0 min 0 W/m 38,6 km/h (5 Bft) 95,83 %
15.12.2019 06:12 9,3 C 8,3 C 7,8 C 97 % 992,6 hPa 0,0 l/m 0 min 0 min 0 W/m 25,7 km/h (4 Bft) 97,87 %
15.12.2019 06:14 9,4 C 8,3 C 7,8 C 97 % 992,7 hPa 0,0 l/m 0 min 0 min 0 W/m 32,2 km/h (5 Bft) 97,92 %
15.12.2019 06:16 9,5 C 8,9 C 7,8 C 97 % 992,7 hPa 0,0 l/m 0 min 0 min 0 W/m 48,3 km/h (6 Bft) 97,87 %
15.12.2019 06:18 9,6 C 8,9 C 7,8 C 97 % 992,7 hPa 0,0 l/m 0 min 0 min 0 W/m 38,6 km/h (5 Bft) 98,11 %
15.12.2019 06:20 9,6 C 8,3 C 7,8 C 97 % 992,5 hPa 0,0 l/m 0 min 0 min 0 W/m 32,2 km/h (5 Bft) 95,74 %
15.12.2019 06:22 9,7 C 8,9 C 7,8 C 96 % 992,5 hPa 0,0 l/m 0 min 0 min 0 W/m 35,4 km/h (5 Bft) 97,83 %
15.12.2019 06:24 9,8 C 8,9 C 7,8 C 96 % 992,5 hPa 0,0 l/m 0 min 0 min 0 W/m 41,8 km/h (6 Bft) 97,37 %
15.12.2019 06:26 9,8 C 8,9 C 7,8 C 95 % 992,7 hPa 0,0 l/m 0 min 0 min 0 W/m 35,4 km/h (5 Bft) 97,87 %
15.12.2019 06:28 9,9 C 8,9 C 7,8 C 95 % 992,6 hPa 0,0 l/m 0 min 0 min 0 W/m 32,2 km/h (5 Bft) 96,00 %
15.12.2019 06:30 9,9 C 8,9 C 7,8 C 94 % 992,6 hPa 0,0 l/m 0 min 0 min 0 W/m 38,6 km/h (5 Bft) 97,87 %
15.12.2019 06:32 10,0 C 8,9 C 7,8 C 93 % 992,7 hPa 0,0 l/m 0 min 0 min 0 W/m 51,5 km/h (7 Bft) 97,87 %
15.12.2019 06:34 10,1 C 8,9 C 7,8 C 93 % 992,8 hPa 0,0 l/m 0 min 0 min 0 W/m 41,8 km/h (6 Bft) 97,87 %
15.12.2019 06:36 10,1 C 8,9 C 7,8 C 92 % 992,8 hPa 0,0 l/m 0 min 0 min 0 W/m 38,6 km/h (5 Bft) 93,88 %
15.12.2019 06:38 10,2 C 8,9 C 7,8 C 92 % 993,2 hPa 0,0 l/m 0 min 2 min 0 W/m 61,2 km/h (7 Bft) 97,87 %
15.12.2019 06:40 10,3 C 8,9 C 7,8 C 91 % 993,2 hPa 0,0 l/m 0 min 2 min 0 W/m 38,6 km/h (5 Bft) 100,00 %
15.12.2019 06:42 10,3 C 8,3 C 7,2 C 91 % 993,5 hPa 0,0 l/m 0 min 2 min 0 W/m 22,5 km/h (4 Bft) 100,00 %
15.12.2019 06:44 10,2 C 7,8 C 6,7 C 91 % 994,2 hPa 0,2 l/m 0 min 2 min 0 W/m 48,3 km/h (6 Bft) 95,74 %
15.12.2019 06:46 9,8 C 5,6 C 5,6 C 89 % 994,5 hPa 0,8 l/m 0 min 2 min 0 W/m 45,1 km/h (6 Bft) 97,96 %
15.12.2019 06:48 9,2 C 5,6 C 5,0 C 88 % 994,9 hPa 0,6 l/m 0 min 2 min 0 W/m 48,3 km/h (6 Bft) 100,00 %
15.12.2019 06:50 8,7 C 5,6 C 5,0 C 88 % 994,8 hPa 0,6 l/m 0 min 2 min 0 W/m 32,2 km/h (5 Bft) 100,00 %
15.12.2019 06:52 8,4 C 5,6 C 5,0 C 89 % 994,8 hPa 0,2 l/m 0 min 2 min 0 W/m 41,8 km/h (6 Bft) 100,00 %
15.12.2019 06:54 8,2 C 5,6 C 5,0 C 90 % 995,1 hPa 0,0 l/m 0 min 2 min 0 W/m 45,1 km/h (6 Bft) 95,74 %
15.12.2019 06:56 8,0 C 5,6 C 5,6 C 91 % 994,7 hPa 0,0 l/m 0 min 2 min 0 W/m 57,9 km/h (7 Bft) 97,87 %
15.12.2019 06:58 7,9 C 6,1 C 5,6 C 91 % 994,8 hPa 0,2 l/m 0 min 2 min 0 W/m 35,4 km/h (5 Bft) 95,12 %
15.12.2019 07:00 7,8 C 6,1 C 5,6 C 92 % 994,9 hPa 0,0 l/m 0 min 2 min 0 W/m 45,1 km/h (6 Bft) 97,67 %
15.12.2019 07:02 7,7 C 5,6 C 5,6 C 92 % 994,9 hPa 0,2 l/m 0 min 2 min 0 W/m 29,0 km/h (5 Bft) 98,00 %
15.12.2019 07:04 7,7 C 5,6 C 5,6 C 93 % 995,3 hPa 0,0 l/m 0 min 2 min 0 W/m 22,5 km/h (4 Bft) 94,00 %
15.12.2019 07:06 7,6 C 5,6 C 5,6 C 93 % 995,1 hPa 0,2 l/m 0 min 2 min 0 W/m 32,2 km/h (5 Bft) 97,96 %
15.12.2019 07:08 7,6 C 5,6 C 5,0 C 93 % 995,2 hPa 0,0 l/m 0 min 2 min 0 W/m 51,5 km/h (7 Bft) 100,00 %
15.12.2019 07:10 7,4 C 5,6 C 5,0 C 93 % 995,0 hPa 0,0 l/m 0 min 2 min 0 W/m 19,3 km/h (3 Bft) 95,74 %
15.12.2019 07:12 7,4 C 5,6 C 5,0 C 93 % 995,1 hPa 0,0 l/m 0 min 2 min 0 W/m 29,0 km/h (5 Bft) 97,87 %
15.12.2019 07:14 7,3 C 5,6 C 5,0 C 93 % 995,2 hPa 0,0 l/m 0 min 2 min 0 W/m 19,3 km/h (3 Bft) 97,87 %
15.12.2019 07:16 7,3 C 5,6 C 5,0 C 93 % 995,4 hPa 0,0 l/m 0 min 2 min 0 W/m 41,8 km/h (6 Bft) 98,18 %
15.12.2019 07:18 7,3 C 5,6 C 5,0 C 93 % 995,4 hPa 0,0 l/m 0 min 2 min 0 W/m 22,5 km/h (4 Bft) 95,74 %
15.12.2019 07:20 7,3 C 5,6 C 5,0 C 93 % 995,4 hPa 0,0 l/m 0 min 2 min 0 W/m 16,1 km/h (3 Bft) 97,83 %
15.12.2019 07:22 7,3 C 5,6 C 5,0 C 93 % 995,4 hPa 0,2 l/m 0 min 2 min 0 W/m 12,9 km/h (3 Bft) 98,00 %
15.12.2019 07:24 7,3 C 5,6 C 5,0 C 93 % 995,3 hPa 0,0 l/m 0 min 2 min 0 W/m 19,3 km/h (3 Bft) 94,74 %
15.12.2019 07:26 7,3 C 5,6 C 5,0 C 93 % 995,5 hPa 0,0 l/m 0 min 2 min 0 W/m 19,3 km/h (3 Bft) 97,87 %
15.12.2019 07:28 7,3 C 5,6 C 5,0 C 93 % 995,4 hPa 0,0 l/m 0 min 2 min 0 W/m 22,5 km/h (4 Bft) 95,74 %
15.12.2019 07:30 7,3 C 5,6 C 5,0 C 93 % 995,6 hPa 0,0 l/m 0 min 2 min 0 W/m 16,1 km/h (3 Bft) 97,87 %
15.12.2019 07:32 7,3 C 5,6 C 5,0 C 93 % 995,7 hPa 0,0 l/m 0 min 2 min 0 W/m 22,5 km/h (4 Bft) 97,92 %
15.12.2019 07:34 7,3 C 5,6 C 5,0 C 93 % 995,6 hPa 0,0 l/m 0 min 2 min 0 W/m 19,3 km/h (3 Bft) 97,92 %
15.12.2019 07:36 7,3 C 5,6 C 5,0 C 93 % 995,6 hPa 0,0 l/m 0 min 2 min 0 W/m 22,5 km/h (4 Bft) 97,87 %
15.12.2019 07:38 7,3 C 5,6 C 5,0 C 93 % 995,6 hPa 0,0 l/m 0 min 2 min 0 W/m 22,5 km/h (4 Bft) 91,49 %
15.12.2019 07:40 7,3 C 5,6 C 5,0 C 93 % 995,4 hPa 0,0 l/m 0 min 2 min 0 W/m 22,5 km/h (4 Bft) 100,00 %
15.12.2019 07:42 7,3 C 5,6 C 5,0 C 93 % 995,3 hPa 0,0 l/m 0 min 2 min 0 W/m 19,3 km/h (3 Bft) 100,00 %
15.12.2019 07:44 7,3 C 5,6 C 5,0 C 93 % 995,4 hPa 0,0 l/m 0 min 2 min 0 W/m 19,3 km/h (3 Bft) 97,83 %
15.12.2019 07:46 7,3 C 5,6 C 5,0 C 93 % 995,6 hPa 0,0 l/m 0 min 2 min 0 W/m 19,3 km/h (3 Bft) 100,00 %
15.12.2019 07:48 7,2 C 5,6 C 5,0 C 93 % 995,7 hPa 0,0 l/m 0 min 2 min 0 W/m 19,3 km/h (3 Bft) 100,00 %
15.12.2019 07:50 7,2 C 5,6 C 5,0 C 93 % 995,7 hPa 0,0 l/m 0 min 2 min 0 W/m 16,1 km/h (3 Bft) 100,00 %
15.12.2019 07:52 7,2 C 5,6 C 5,0 C 93 % 995,8 hPa 0,0 l/m 0 min 2 min 0 W/m 16,1 km/h (3 Bft) 97,87 %
15.12.2019 07:54 7,2 C 5,6 C 5,0 C 93 % 995,7 hPa 0,0 l/m 0 min 2 min 0 W/m 22,5 km/h (4 Bft) 100,00 %
15.12.2019 07:56 7,2 C 5,6 C 5,0 C 93 % 995,6 hPa 0,0 l/m 0 min 2 min 0 W/m 22,5 km/h (4 Bft) 97,83 %
15.12.2019 07:58 7,2 C 5,6 C 5,0 C 93 % 995,7 hPa 0,0 l/m 0 min 2 min 0 W/m 19,3 km/h (3 Bft) 100,00 %
15.12.2019 08:00 7,2 C 5,6 C 5,0 C 93 % 995,7 hPa 0,0 l/m 0 min 2 min 0 W/m 16,1 km/h (3 Bft) 98,00 %
15.12.2019 08:02 7,2 C 5,6 C 5,0 C 93 % 995,8 hPa 0,0 l/m 0 min 2 min 0 W/m 45,1 km/h (6 Bft) 95,24 %
15.12.2019 08:04 7,2 C 5,6 C 5,0 C 93 % 995,8 hPa 0,0 l/m 0 min 2 min 0 W/m 19,3 km/h (3 Bft) 100,00 %
15.12.2019 08:06 7,2 C 5,6 C 5,0 C 93 % 995,9 hPa 0,0 l/m 0 min 2 min 0 W/m 29,0 km/h (5 Bft) 100,00 %
15.12.2019 08:08 7,2 C 5,6 C 5,0 C 93 % 995,9 hPa 0,0 l/m 0 min 2 min 0 W/m 19,3 km/h (3 Bft) 100,00 %
15.12.2019 08:10 7,2 C 5,6 C 5,0 C 93 % 996,1 hPa 0,0 l/m 0 min 0 min 0 W/m 19,3 km/h (3 Bft) 100,00 %
15.12.2019 08:12 7,2 C 5,6 C 5,0 C 93 % 996,1 hPa 0,0 l/m 0 min 2 min 0 W/m 19,3 km/h (3 Bft) 100,00 %
15.12.2019 08:14 7,2 C 5,6 C 5,0 C 93 % 996,2 hPa 0,0 l/m 0 min 2 min 0 W/m 22,5 km/h (4 Bft) 100,00 %
15.12.2019 08:16 7,1 C 5,6 C 5,0 C 93 % 996,1 hPa 0,0 l/m 0 min 0 min 0 W/m 22,5 km/h (4 Bft) 100,00 %
15.12.2019 08:18 7,1 C 5,6 C 5,0 C 93 % 996,1 hPa 0,0 l/m 0 min 0 min 0 W/m 19,3 km/h (3 Bft) 95,92 %
15.12.2019 08:20 7,1 C 5,6 C 5,0 C 93 % 996,2 hPa 0,0 l/m 0 min 0 min 0 W/m 25,7 km/h (4 Bft) 54,76 %
15.12.2019 08:22 7,1 C 5,6 C 5,0 C 93 % 996,1 hPa 0,0 l/m 0 min 0 min 0 W/m 16,1 km/h (3 Bft) 100,00 %
15.12.2019 08:24 7,1 C 5,6 C 5,0 C 93 % 996,2 hPa 0,0 l/m 0 min 0 min 0 W/m 16,1 km/h (3 Bft) 100,00 %
15.12.2019 08:26 7,1 C 5,6 C 5,0 C 93 % 996,2 hPa 0,0 l/m 0 min 0 min 0 W/m 19,3 km/h (3 Bft) 96,00 %
15.12.2019 08:28 7,1 C 5,6 C 5,0 C 93 % 996,4 hPa 0,0 l/m 0 min 0 min 0 W/m 22,5 km/h (4 Bft) 97,87 %
15.12.2019 08:30 7,1 C 5,6 C 5,0 C 93 % 996,5 hPa 0,0 l/m 0 min 0 min 0 W/m 32,2 km/h (5 Bft) 97,92 %
15.12.2019 08:32 7,1 C 5,6 C 5,0 C 93 % 996,6 hPa 0,0 l/m 0 min 0 min 0 W/m 16,1 km/h (3 Bft) 95,83 %
15.12.2019 08:34 7,1 C 5,6 C 5,0 C 93 % 996,6 hPa 0,0 l/m 0 min 0 min 0 W/m 22,5 km/h (4 Bft) 95,74 %
15.12.2019 08:36 7,1 C 5,6 C 5,0 C 93 % 996,6 hPa 0,0 l/m 0 min 0 min 1 W/m 22,5 km/h (4 Bft) 95,74 %
15.12.2019 08:38 7,1 C 5,6 C 5,0 C 93 % 996,7 hPa 0,0 l/m 0 min 0 min 5 W/m 16,1 km/h (3 Bft) 97,37 %
15.12.2019 08:40 7,1 C 5,6 C 5,0 C 93 % 996,9 hPa 0,0 l/m 0 min 0 min 5 W/m 22,5 km/h (4 Bft) 97,87 %
15.12.2019 08:42 7,1 C 5,6 C 5,0 C 93 % 996,9 hPa 0,0 l/m 0 min 0 min 5 W/m 22,5 km/h (4 Bft) 93,62 %
15.12.2019 08:44 7,1 C 5,6 C 5,0 C 93 % 996,9 hPa 0,0 l/m 0 min 0 min 6 W/m 22,5 km/h (4 Bft) 93,88 %
15.12.2019 08:46 7,1 C 6,1 C 5,0 C 93 % 997,0 hPa 0,0 l/m 0 min 0 min 7 W/m 29,0 km/h (5 Bft) 95,74 %
15.12.2019 08:48 7,1 C 6,1 C 5,0 C 93 % 997,0 hPa 0,0 l/m 0 min 0 min 8 W/m 22,5 km/h (4 Bft) 95,92 %
15.12.2019 08:50 7,1 C 6,1 C 5,0 C 93 % 997,2 hPa 0,0 l/m 0 min 0 min 9 W/m 29,0 km/h (5 Bft) 95,83 %
15.12.2019 08:52 7,2 C 6,1 C 5,0 C 93 % 997,3 hPa 0,0 l/m 0 min 0 min 10 W/m 22,5 km/h (4 Bft) 93,62 %
15.12.2019 08:54 7,2 C 6,1 C 5,0 C 93 % 997,3 hPa 0,0 l/m 0 min 0 min 11 W/m 25,7 km/h (4 Bft) 95,65 %
15.12.2019 08:56 7,2 C 6,1 C 5,0 C 93 % 997,4 hPa 0,0 l/m 0 min 0 min 11 W/m 22,5 km/h (4 Bft) 93,62 %
15.12.2019 08:58 7,2 C 6,1 C 5,0 C 93 % 997,5 hPa 0,0 l/m 0 min 0 min 11 W/m 25,7 km/h (4 Bft) 93,62 %
15.12.2019 09:00 7,2 C 6,1 C 5,0 C 93 % 997,5 hPa 0,0 l/m 0 min 0 min 12 W/m 19,3 km/h (3 Bft) 96,00 %
15.12.2019 09:02 7,2 C 6,1 C 5,6 C 93 % 997,7 hPa 0,0 l/m 0 min 0 min 15 W/m 22,5 km/h (4 Bft) 94,74 %
15.12.2019 09:04 7,2 C 6,1 C 5,6 C 93 % 997,7 hPa 0,0 l/m 0 min 0 min 20 W/m 29,0 km/h (5 Bft) 95,24 %
15.12.2019 09:06 7,3 C 6,1 C 5,6 C 93 % 997,7 hPa 0,0 l/m 0 min 0 min 22 W/m 25,7 km/h (4 Bft) 95,74 %
15.12.2019 09:08 7,3 C 6,1 C 5,6 C 93 % 997,8 hPa 0,0 l/m 0 min 0 min 27 W/m 19,3 km/h (3 Bft) 95,83 %
15.12.2019 09:10 7,3 C 6,1 C 5,6 C 93 % 997,8 hPa 0,0 l/m 0 min 0 min 27 W/m 19,3 km/h (3 Bft) 95,83 %
15.12.2019 09:12 7,3 C 6,1 C 5,6 C 93 % 997,9 hPa 0,0 l/m 0 min 0 min 26 W/m 29,0 km/h (5 Bft) 95,83 %
15.12.2019 09:14 7,3 C 6,1 C 5,6 C 93 % 998,0 hPa 0,0 l/m 0 min 0 min 31 W/m 29,0 km/h (5 Bft) 95,83 %
15.12.2019 09:16 7,4 C 6,1 C 5,6 C 93 % 998,2 hPa 0,0 l/m 0 min 0 min 34 W/m 22,5 km/h (4 Bft) 95,74 %
15.12.2019 09:18 7,4 C 6,7 C 5,6 C 93 % 998,1 hPa 0,0 l/m 0 min 0 min 33 W/m 16,1 km/h (3 Bft) 93,75 %
15.12.2019 09:20 7,4 C 6,7 C 5,6 C 93 % 998,1 hPa 0,0 l/m 0 min 0 min 35 W/m 22,5 km/h (4 Bft) 97,92 %
15.12.2019 09:22 7,4 C 6,7 C 5,6 C 93 % 998,2 hPa 0,0 l/m 0 min 0 min 37 W/m 25,7 km/h (4 Bft) 93,75 %
15.12.2019 09:24 7,5 C 6,7 C 5,6 C 93 % 998,3 hPa 0,0 l/m 0 min 0 min 43 W/m 25,7 km/h (4 Bft) 95,83 %
15.12.2019 09:26 7,5 C 6,7 C 5,6 C 93 % 998,3 hPa 0,0 l/m 0 min 0 min 40 W/m 25,7 km/h (4 Bft) 97,87 %
15.12.2019 09:28 7,6 C 6,7 C 5,6 C 93 % 998,3 hPa 0,0 l/m 0 min 0 min 39 W/m 29,0 km/h (5 Bft) 95,83 %
15.12.2019 09:30 7,6 C 6,7 C 5,6 C 93 % 998,3 hPa 0,0 l/m 0 min 0 min 35 W/m 29,0 km/h (5 Bft) 97,22 %
15.12.2019 09:32 7,6 C 6,7 C 5,6 C 92 % 998,5 hPa 0,0 l/m 0 min 0 min 34 W/m 19,3 km/h (3 Bft) 97,96 %
15.12.2019 09:34 7,6 C 6,7 C 5,6 C 92 % 998,5 hPa 0,0 l/m 0 min 0 min 32 W/m 16,1 km/h (3 Bft) 95,74 %
15.12.2019 09:36 7,6 C 6,7 C 5,6 C 92 % 998,5 hPa 0,0 l/m 0 min 0 min 34 W/m 22,5 km/h (4 Bft) 97,92 %
15.12.2019 09:38 7,6 C 6,1 C 5,6 C 92 % 998,5 hPa 0,2 l/m 0 min 0 min 31 W/m 35,4 km/h (5 Bft) 97,92 %
15.12.2019 09:40 7,6 C 6,1 C 5,6 C 92 % 998,6 hPa 0,0 l/m 0 min 0 min 31 W/m 35,4 km/h (5 Bft) 97,87 %
15.12.2019 09:42 7,6 C 6,7 C 5,6 C 91 % 998,5 hPa 0,0 l/m 0 min 0 min 32 W/m 35,4 km/h (5 Bft) 95,83 %
15.12.2019 09:44 7,6 C 6,1 C 5,6 C 91 % 998,7 hPa 0,0 l/m 0 min 0 min 32 W/m 19,3 km/h (3 Bft) 95,74 %
15.12.2019 09:46 7,6 C 6,1 C 5,6 C 91 % 998,8 hPa 0,0 l/m 0 min 0 min 32 W/m 25,7 km/h (4 Bft) 96,30 %
15.12.2019 09:48 7,6 C 6,7 C 5,6 C 90 % 998,8 hPa 0,0 l/m 0 min 0 min 34 W/m 29,0 km/h (5 Bft) 95,74 %
15.12.2019 09:50 7,6 C 6,7 C 5,6 C 90 % 998,8 hPa 0,0 l/m 0 min 0 min 37 W/m 29,0 km/h (5 Bft) 100,00 %
15.12.2019 09:52 7,6 C 6,7 C 5,0 C 90 % 998,8 hPa 0,0 l/m 0 min 0 min 36 W/m 22,5 km/h (4 Bft) 91,49 %
15.12.2019 09:54 7,6 C 6,7 C 5,0 C 89 % 998,9 hPa 0,0 l/m 0 min 0 min 48 W/m 22,5 km/h (4 Bft) 97,83 %
15.12.2019 09:56 7,6 C 6,7 C 5,0 C 89 % 999,0 hPa 0,0 l/m 0 min 0 min 69 W/m 22,5 km/h (4 Bft) 96,00 %
15.12.2019 09:58 7,6 C 6,7 C 5,0 C 89 % 999,0 hPa 0,0 l/m 0 min 0 min 69 W/m 25,7 km/h (4 Bft) 97,87 %
15.12.2019 10:00 7,6 C 6,7 C 5,0 C 89 % 999,1 hPa 0,0 l/m 0 min 0 min 74 W/m 22,5 km/h (4 Bft) 97,87 %
15.12.2019 10:02 7,6 C 7,2 C 5,0 C 88 % 999,1 hPa 0,0 l/m 2 min 0 min 106 W/m 19,3 km/h (3 Bft) 97,67 %
15.12.2019 10:04 7,6 C 7,2 C 5,0 C 88 % 999,2 hPa 0,0 l/m 2 min 0 min 91 W/m 35,4 km/h (5 Bft) 98,11 %
15.12.2019 10:06 7,6 C 7,2 C 5,0 C 88 % 999,3 hPa 0,0 l/m 0 min 0 min 88 W/m 19,3 km/h (3 Bft) 98,00 %
15.12.2019 10:08 7,6 C 7,8 C 5,0 C 88 % 999,3 hPa 0,0 l/m 2 min 0 min 106 W/m 19,3 km/h (3 Bft) 97,22 %
15.12.2019 10:10 7,6 C 8,3 C 5,6 C 88 % 999,3 hPa 0,0 l/m 2 min 0 min 113 W/m 19,3 km/h (3 Bft) 97,92 %
15.12.2019 10:12 7,6 C 8,3 C 5,6 C 88 % 999,3 hPa 0,0 l/m 2 min 0 min 109 W/m 25,7 km/h (4 Bft) 97,92 %
15.12.2019 10:14 7,6 C 8,9 C 5,6 C 88 % 999,5 hPa 0,0 l/m 2 min 0 min 122 W/m 32,2 km/h (5 Bft) 97,87 %
15.12.2019 10:16 7,7 C 8,9 C 5,6 C 88 % 999,5 hPa 0,0 l/m 2 min 0 min 103 W/m 16,1 km/h (3 Bft) 97,92 %
15.12.2019 10:18 7,7 C 9,4 C 5,6 C 88 % 999,5 hPa 0,0 l/m 2 min 0 min 143 W/m 22,5 km/h (4 Bft) 97,92 %
15.12.2019 10:20 7,7 C 8,9 C 5,6 C 88 % 999,5 hPa 0,0 l/m 2 min 0 min 156 W/m 22,5 km/h (4 Bft) 93,75 %
15.12.2019 10:22 7,7 C 9,4 C 5,6 C 88 % 999,6 hPa 0,0 l/m 2 min 0 min 160 W/m 22,5 km/h (4 Bft) 100,00 %
15.12.2019 10:24 7,7 C 10,0 C 5,6 C 88 % 999,7 hPa 0,0 l/m 2 min 0 min 160 W/m 19,3 km/h (3 Bft) 97,87 %
15.12.2019 10:26 7,8 C 10,0 C 5,6 C 88 % 999,7 hPa 0,0 l/m 2 min 0 min 158 W/m 25,7 km/h (4 Bft) 100,00 %
15.12.2019 10:28 7,8 C 10,0 C 5,6 C 87 % 999,8 hPa 0,0 l/m 2 min 0 min 154 W/m 25,7 km/h (4 Bft) 100,00 %
15.12.2019 10:30 7,8 C 10,0 C 5,6 C 87 % 999,9 hPa 0,0 l/m 2 min 0 min 147 W/m 29,0 km/h (5 Bft) 100,00 %
15.12.2019 10:32 7,9 C 10,0 C 5,6 C 87 % 999,8 hPa 0,0 l/m 2 min 0 min 137 W/m 25,7 km/h (4 Bft) 100,00 %
15.12.2019 10:34 7,9 C 10,0 C 5,6 C 87 % 999,9 hPa 0,0 l/m 2 min 0 min 135 W/m 19,3 km/h (3 Bft) 100,00 %
15.12.2019 10:36 7,9 C 10,0 C 5,6 C 87 % 999,8 hPa 0,0 l/m 2 min 0 min 161 W/m 25,7 km/h (4 Bft) 100,00 %
15.12.2019 10:38 7,9 C 9,4 C 5,6 C 87 % 1000,0 hPa 0,0 l/m 2 min 0 min 144 W/m 22,5 km/h (4 Bft) 100,00 %
15.12.2019 10:40 8,0 C 9,4 C 5,6 C 87 % 1000,0 hPa 0,0 l/m 0 min 0 min 103 W/m 22,5 km/h (4 Bft) 100,00 %
15.12.2019 10:42 8,0 C 9,4 C 5,6 C 87 % 1000,0 hPa 0,0 l/m 0 min 0 min 114 W/m 19,3 km/h (3 Bft) 100,00 %
15.12.2019 10:44 8,0 C 9,4 C 5,6 C 86 % 1000,1 hPa 0,0 l/m 2 min 0 min 130 W/m 29,0 km/h (5 Bft) 94,44 %
15.12.2019 10:46 8,0 C 8,9 C 5,6 C 86 % 1000,2 hPa 0,0 l/m 0 min 0 min 116 W/m 22,5 km/h (4 Bft) 100,00 %
15.12.2019 10:48 8,0 C 8,3 C 5,6 C 86 % 1000,2 hPa 0,0 l/m 0 min 0 min 104 W/m 22,5 km/h (4 Bft) 100,00 %
15.12.2019 10:50 8,0 C 8,3 C 5,6 C 86 % 1000,2 hPa 0,0 l/m 0 min 0 min 99 W/m 25,7 km/h (4 Bft) 97,83 %
15.12.2019 10:52 8,0 C 8,3 C 5,6 C 85 % 1000,2 hPa 0,0 l/m 0 min 0 min 113 W/m 22,5 km/h (4 Bft) 100,00 %
15.12.2019 10:54 8,0 C 8,3 C 5,6 C 85 % 1000,3 hPa 0,0 l/m 0 min 0 min 96 W/m 25,7 km/h (4 Bft) 100,00 %
15.12.2019 10:56 8,0 C 8,9 C 5,6 C 85 % 1000,4 hPa 0,0 l/m 2 min 0 min 126 W/m 16,1 km/h (3 Bft) 100,00 %
15.12.2019 10:58 8,0 C 8,3 C 5,6 C 85 % 1000,4 hPa 0,0 l/m 2 min 0 min 161 W/m 29,0 km/h (5 Bft) 97,96 %
15.12.2019 11:00 8,0 C 8,9 C 5,6 C 85 % 1000,4 hPa 0,0 l/m 0 min 0 min 109 W/m 19,3 km/h (3 Bft) 97,87 %
15.12.2019 11:02 8,0 C 9,4 C 5,6 C 85 % 1000,4 hPa 0,0 l/m 2 min 0 min 131 W/m 19,3 km/h (3 Bft) 97,37 %
15.12.2019 11:04 8,1 C 9,4 C 5,6 C 85 % 1000,5 hPa 0,0 l/m 0 min 0 min 106 W/m 16,1 km/h (3 Bft) 97,67 %
15.12.2019 11:06 8,1 C 9,4 C 5,6 C 85 % 1000,5 hPa 0,0 l/m 0 min 0 min 102 W/m 16,1 km/h (3 Bft) 100,00 %
15.12.2019 11:08 8,1 C 8,9 C 5,6 C 85 % 1000,5 hPa 0,0 l/m 0 min 0 min 123 W/m 22,5 km/h (4 Bft) 98,15 %
15.12.2019 11:10 8,1 C 9,4 C 5,6 C 84 % 1000,6 hPa 0,0 l/m 2 min 0 min 134 W/m 32,2 km/h (5 Bft) 97,62 %
15.12.2019 11:12 8,1 C 9,4 C 5,6 C 85 % 1000,6 hPa 0,0 l/m 2 min 0 min 142 W/m 22,5 km/h (4 Bft) 97,87 %
15.12.2019 11:14 8,1 C 10,0 C 5,6 C 85 % 1000,6 hPa 0,0 l/m 2 min 0 min 185 W/m 19,3 km/h (3 Bft) 97,87 %
15.12.2019 11:16 8,1 C 10,0 C 5,6 C 85 % 1000,6 hPa 0,0 l/m 2 min 0 min 157 W/m 32,2 km/h (5 Bft) 94,44 %
15.12.2019 11:18 8,1 C 10,6 C 5,6 C 85 % 1000,7 hPa 0,0 l/m 2 min 0 min 182 W/m 16,1 km/h (3 Bft) 97,62 %
15.12.2019 11:20 8,2 C 10,6 C 6,1 C 85 % 1000,7 hPa 0,0 l/m 2 min 0 min 219 W/m 16,1 km/h (3 Bft) 96,36 %
15.12.2019 11:22 8,2 C 11,1 C 5,6 C 86 % 1000,7 hPa 0,0 l/m 2 min 0 min 226 W/m 22,5 km/h (4 Bft) 93,62 %
15.12.2019 11:24 8,2 C 11,1 C 6,1 C 86 % 1000,7 hPa 0,0 l/m 2 min 0 min 230 W/m 22,5 km/h (4 Bft) 47,37 %
15.12.2019 11:26 8,3 C 10,6 C 6,1 C 86 % 1000,7 hPa 0,0 l/m 2 min 0 min 218 W/m 25,7 km/h (4 Bft) 95,92 %
15.12.2019 11:28 8,3 C 10,6 C 5,6 C 86 % 1000,7 hPa 0,0 l/m 2 min 0 min 182 W/m 12,9 km/h (3 Bft) 95,74 %
15.12.2019 11:30 8,3 C 10,6 C 5,6 C 86 % 1000,7 hPa 0,0 l/m 2 min 0 min 211 W/m 41,8 km/h (6 Bft) 96,00 %
15.12.2019 11:32 8,3 C 11,1 C 6,1 C 86 % 1000,8 hPa 0,0 l/m 2 min 0 min 249 W/m 22,5 km/h (4 Bft) 95,74 %
15.12.2019 11:34 8,3 C 10,6 C 6,1 C 85 % 1000,8 hPa 0,0 l/m 2 min 0 min 212 W/m 25,7 km/h (4 Bft) 95,92 %
15.12.2019 11:36 8,4 C 10,0 C 6,1 C 86 % 1000,8 hPa 0,0 l/m 2 min 0 min 169 W/m 19,3 km/h (3 Bft) 97,87 %
15.12.2019 11:38 8,4 C 10,0 C 6,1 C 85 % 1000,8 hPa 0,0 l/m 0 min 0 min 122 W/m 22,5 km/h (4 Bft) 97,87 %
15.12.2019 11:40 8,4 C 10,6 C 6,1 C 85 % 1000,9 hPa 0,0 l/m 2 min 0 min 240 W/m 35,4 km/h (5 Bft) 97,37 %
15.12.2019 11:42 8,4 C 10,6 C 6,1 C 85 % 1000,8 hPa 0,0 l/m 2 min 0 min 218 W/m 19,3 km/h (3 Bft) 95,83 %
15.12.2019 11:44 8,5 C 11,1 C 6,1 C 85 % 1000,8 hPa 0,0 l/m 2 min 0 min 224 W/m 19,3 km/h (3 Bft) 97,92 %
15.12.2019 11:46 8,5 C 11,1 C 6,7 C 85 % 1000,9 hPa 0,0 l/m 2 min 0 min 244 W/m 41,8 km/h (6 Bft) 97,87 %
15.12.2019 11:48 8,6 C 10,6 C 6,7 C 85 % 1000,9 hPa 0,0 l/m 2 min 0 min 191 W/m 25,7 km/h (4 Bft) 97,92 %
15.12.2019 11:50 8,6 C 10,6 C 6,7 C 85 % 1000,9 hPa 0,0 l/m 2 min 0 min 227 W/m 25,7 km/h (4 Bft) 97,92 %
15.12.2019 11:52 8,6 C 10,0 C 7,2 C 84 % 1001,0 hPa 0,0 l/m 2 min 0 min 205 W/m 29,0 km/h (5 Bft) 97,62 %
15.12.2019 11:54 8,6 C 10,0 C 7,2 C 84 % 1001,0 hPa 0,0 l/m 2 min 0 min 172 W/m 12,9 km/h (3 Bft) 97,62 %
15.12.2019 11:56 8,6 C 10,0 C 7,2 C 84 % 1001,1 hPa 0,0 l/m 2 min 0 min 193 W/m 32,2 km/h (5 Bft) 95,83 %
15.12.2019 11:58 8,6 C 9,4 C 7,2 C 84 % 1001,0 hPa 0,0 l/m 2 min 0 min 234 W/m 19,3 km/h (3 Bft) 100,00 %
15.12.2019 12:00 8,6 C 9,4 C 7,2 C 84 % 1000,9 hPa 0,0 l/m 2 min 0 min 188 W/m 25,7 km/h (4 Bft) 100,00 %
15.12.2019 12:02 8,7 C 10,0 C 7,2 C 84 % 1001,0 hPa 0,0 l/m 2 min 0 min 212 W/m 29,0 km/h (5 Bft) 97,87 %
15.12.2019 12:04 8,7 C 10,0 C 7,2 C 83 % 1001,0 hPa 0,0 l/m 2 min 0 min 249 W/m 35,4 km/h (5 Bft) 100,00 %
15.12.2019 12:08 8,7 C 11,1 C 7,2 C 83 % 1001,0 hPa 0,0 l/m 4 min 0 min 228 W/m 25,7 km/h (4 Bft) 100,00 %
15.12.2019 12:10 8,8 C 10,6 C 7,2 C 83 % 1000,9 hPa 0,0 l/m 2 min 0 min 220 W/m 41,8 km/h (6 Bft) 98,15 %
15.12.2019 12:12 8,8 C 11,1 C 7,2 C 83 % 1001,0 hPa 0,0 l/m 2 min 0 min 267 W/m 32,2 km/h (5 Bft) 100,00 %
15.12.2019 12:14 8,8 C 11,1 C 7,2 C 83 % 1001,0 hPa 0,0 l/m 2 min 0 min 241 W/m 22,5 km/h (4 Bft) 100,00 %
15.12.2019 12:16 8,8 C 11,7 C 7,2 C 83 % 1001,0 hPa 0,0 l/m 2 min 0 min 273 W/m 45,1 km/h (6 Bft) 97,87 %
15.12.2019 12:18 8,9 C 11,7 C 7,2 C 83 % 1000,9 hPa 0,0 l/m 2 min 0 min 263 W/m 19,3 km/h (3 Bft) 100,00 %
15.12.2019 12:20 8,9 C 11,7 C 7,2 C 83 % 1001,0 hPa 0,0 l/m 2 min 0 min 218 W/m 25,7 km/h (4 Bft) 100,00 %
15.12.2019 12:22 9,0 C 11,7 C 7,2 C 82 % 1001,0 hPa 0,0 l/m 2 min 0 min 275 W/m 32,2 km/h (5 Bft) 93,48 %
15.12.2019 12:24 9,1 C 11,7 C 7,8 C 83 % 1001,0 hPa 0,0 l/m 2 min 0 min 258 W/m 22,5 km/h (4 Bft) 100,00 %
15.12.2019 12:26 9,1 C 11,7 C 7,8 C 82 % 1001,0 hPa 0,0 l/m 2 min 0 min 258 W/m 32,2 km/h (5 Bft) 100,00 %
15.12.2019 12:28 9,1 C 11,7 C 7,8 C 82 % 1001,3 hPa 0,0 l/m 2 min 0 min 271 W/m 32,2 km/h (5 Bft) 100,00 %
15.12.2019 12:30 9,2 C 11,7 C 7,8 C 82 % 1001,2 hPa 0,0 l/m 2 min 0 min 272 W/m 45,1 km/h (6 Bft) 100,00 %
15.12.2019 12:32 9,2 C 11,7 C 7,8 C 82 % 1001,3 hPa 0,0 l/m 2 min 0 min 247 W/m 25,7 km/h (4 Bft) 100,00 %
15.12.2019 12:34 9,2 C 11,7 C 7,8 C 82 % 1001,4 hPa 0,0 l/m 2 min 0 min 275 W/m 25,7 km/h (4 Bft) 100,00 %
15.12.2019 12:36 9,2 C 12,2 C 7,8 C 82 % 1001,4 hPa 0,0 l/m 2 min 0 min 252 W/m 32,2 km/h (5 Bft) 100,00 %
15.12.2019 12:38 9,3 C 11,7 C 7,8 C 82 % 1001,4 hPa 0,0 l/m 2 min 0 min 221 W/m 29,0 km/h (5 Bft) 100,00 %
15.12.2019 12:40 9,3 C 11,7 C 7,8 C 82 % 1001,4 hPa 0,0 l/m 2 min 0 min 260 W/m 35,4 km/h (5 Bft) 97,92 %
15.12.2019 12:42 9,3 C 11,7 C 7,8 C 82 % 1001,5 hPa 0,0 l/m 2 min 0 min 266 W/m 25,7 km/h (4 Bft) 98,18 %
15.12.2019 12:44 9,3 C 11,7 C 7,8 C 82 % 1001,5 hPa 0,0 l/m 2 min 0 min 268 W/m 32,2 km/h (5 Bft) 100,00 %
15.12.2019 12:46 9,3 C 11,7 C 7,8 C 82 % 1001,5 hPa 0,0 l/m 2 min 0 min 270 W/m 25,7 km/h (4 Bft) 100,00 %
15.12.2019 12:48 9,3 C 11,1 C 7,8 C 82 % 1001,5 hPa 0,0 l/m 2 min 0 min 179 W/m 29,0 km/h (5 Bft) 100,00 %
15.12.2019 12:50 9,3 C 10,6 C 7,8 C 82 % 1001,5 hPa 0,0 l/m 2 min 0 min 172 W/m 29,0 km/h (5 Bft) 96,23 %
15.12.2019 12:52 9,3 C 11,1 C 7,8 C 82 % 1001,6 hPa 0,0 l/m 2 min 0 min 207 W/m 19,3 km/h (3 Bft) 97,37 %
15.12.2019 12:54 9,3 C 11,1 C 7,8 C 82 % 1001,6 hPa 0,0 l/m 2 min 0 min 254 W/m 35,4 km/h (5 Bft) 100,00 %
15.12.2019 12:56 9,3 C 10,6 C 7,8 C 81 % 1001,6 hPa 0,0 l/m 2 min 0 min 189 W/m 32,2 km/h (5 Bft) 100,00 %
15.12.2019 12:58 9,3 C 10,0 C 7,8 C 81 % 1001,6 hPa 0,0 l/m 2 min 0 min 155 W/m 22,5 km/h (4 Bft) 100,00 %
15.12.2019 13:00 9,3 C 10,6 C 7,8 C 81 % 1001,7 hPa 0,0 l/m 2 min 0 min 189 W/m 19,3 km/h (3 Bft) 95,74 %
15.12.2019 13:02 9,3 C 10,6 C 7,2 C 81 % 1001,7 hPa 0,0 l/m 2 min 0 min 194 W/m 16,1 km/h (3 Bft) 100,00 %
15.12.2019 13:04 9,2 C 11,1 C 7,8 C 81 % 1001,7 hPa 0,0 l/m 2 min 0 min 221 W/m 22,5 km/h (4 Bft) 97,87 %
15.12.2019 13:06 9,2 C 10,6 C 7,8 C 81 % 1001,7 hPa 0,0 l/m 2 min 0 min 183 W/m 38,6 km/h (5 Bft) 97,87 %
15.12.2019 13:08 9,2 C 10,0 C 7,8 C 80 % 1001,8 hPa 0,0 l/m 0 min 0 min 135 W/m 25,7 km/h (4 Bft) 97,87 %
15.12.2019 13:10 9,2 C 9,4 C 7,2 C 80 % 1001,8 hPa 0,0 l/m 0 min 0 min 102 W/m 51,5 km/h (7 Bft) 97,83 %
15.12.2019 13:12 9,2 C 9,4 C 7,2 C 80 % 1001,7 hPa 0,0 l/m 0 min 0 min 131 W/m 29,0 km/h (5 Bft) 92,86 %
15.12.2019 13:14 9,1 C 9,4 C 7,2 C 80 % 1001,7 hPa 0,0 l/m 0 min 0 min 91 W/m 29,0 km/h (5 Bft) 98,18 %
15.12.2019 13:16 9,1 C 9,4 C 7,2 C 80 % 1001,7 hPa 0,0 l/m 0 min 0 min 110 W/m 32,2 km/h (5 Bft) 97,37 %
15.12.2019 13:18 9,1 C 9,4 C 7,2 C 80 % 1001,9 hPa 0,0 l/m 0 min 0 min 101 W/m 22,5 km/h (4 Bft) 96,00 %
15.12.2019 13:20 9,1 C 9,4 C 7,2 C 80 % 1001,9 hPa 0,0 l/m 0 min 0 min 112 W/m 19,3 km/h (3 Bft) 95,83 %
15.12.2019 13:22 9,1 C 8,9 C 7,2 C 80 % 1001,9 hPa 0,0 l/m 0 min 0 min 96 W/m 35,4 km/h (5 Bft) 95,83 %
15.12.2019 13:24 9,0 C 8,9 C 7,2 C 80 % 1001,9 hPa 0,0 l/m 0 min 0 min 100 W/m 29,0 km/h (5 Bft) 95,83 %
15.12.2019 13:26 9,0 C 8,9 C 7,2 C 80 % 1001,9 hPa 0,0 l/m 0 min 0 min 98 W/m 22,5 km/h (4 Bft) 97,22 %
15.12.2019 13:28 8,9 C 9,4 C 7,2 C 80 % 1001,9 hPa 0,0 l/m 0 min 0 min 136 W/m 35,4 km/h (5 Bft) 98,15 %
15.12.2019 13:30 8,9 C 9,4 C 7,2 C 80 % 1002,0 hPa 0,0 l/m 0 min 0 min 110 W/m 29,0 km/h (5 Bft) 98,00 %
15.12.2019 13:32 8,9 C 8,9 C 7,2 C 80 % 1002,0 hPa 0,0 l/m 0 min 0 min 111 W/m 22,5 km/h (4 Bft) 95,92 %
15.12.2019 13:34 8,9 C 8,9 C 7,2 C 80 % 1002,0 hPa 0,0 l/m 0 min 0 min 100 W/m 32,2 km/h (5 Bft) 93,62 %
15.12.2019 13:36 8,8 C 8,9 C 7,2 C 80 % 1002,0 hPa 0,0 l/m 0 min 0 min 94 W/m 19,3 km/h (3 Bft) 100,00 %
15.12.2019 13:38 8,8 C 8,9 C 7,2 C 80 % 1001,9 hPa 0,0 l/m 0 min 0 min 93 W/m 19,3 km/h (3 Bft) 92,00 %
15.12.2019 13:40 8,8 C 8,9 C 7,2 C 80 % 1002,0 hPa 0,0 l/m 0 min 0 min 91 W/m 32,2 km/h (5 Bft) 91,49 %
15.12.2019 13:42 8,8 C 8,9 C 7,2 C 80 % 1002,0 hPa 0,0 l/m 0 min 0 min 105 W/m 29,0 km/h (5 Bft) 91,67 %
15.12.2019 13:44 8,8 C 8,9 C 7,2 C 80 % 1002,1 hPa 0,0 l/m 0 min 0 min 125 W/m 22,5 km/h (4 Bft) 93,75 %
15.12.2019 13:46 8,8 C 9,4 C 7,2 C 81 % 1002,2 hPa 0,0 l/m 2 min 0 min 140 W/m 22,5 km/h (4 Bft) 93,62 %
15.12.2019 13:48 8,8 C 9,4 C 7,2 C 81 % 1002,1 hPa 0,0 l/m 0 min 0 min 126 W/m 22,5 km/h (4 Bft) 91,49 %
15.12.2019 13:50 8,8 C 9,4 C 7,2 C 81 % 1002,2 hPa 0,0 l/m 2 min 0 min 146 W/m 16,1 km/h (3 Bft) 95,74 %
15.12.2019 13:52 8,8 C 9,4 C 7,2 C 81 % 1002,3 hPa 0,0 l/m 2 min 0 min 154 W/m 19,3 km/h (3 Bft) 94,00 %
15.12.2019 13:54 8,8 C 10,0 C 7,8 C 81 % 1002,4 hPa 0,0 l/m 2 min 0 min 157 W/m 32,2 km/h (5 Bft) 97,30 %
15.12.2019 13:56 8,8 C 10,0 C 7,8 C 81 % 1002,4 hPa 0,0 l/m 2 min 0 min 168 W/m 12,9 km/h (3 Bft) 93,62 %
15.12.2019 13:58 8,8 C 10,0 C 7,8 C 81 % 1002,4 hPa 0,0 l/m 2 min 0 min 177 W/m 35,4 km/h (5 Bft) 96,00 %
15.12.2019 14:00 8,8 C 10,0 C 7,8 C 80 % 1002,5 hPa 0,0 l/m 2 min 0 min 146 W/m 29,0 km/h (5 Bft) 91,49 %
15.12.2019 14:02 8,8 C 9,4 C 7,8 C 80 % 1002,5 hPa 0,0 l/m 2 min 0 min 136 W/m 25,7 km/h (4 Bft) 95,74 %
15.12.2019 14:04 8,8 C 9,4 C 7,2 C 80 % 1002,5 hPa 0,0 l/m 0 min 0 min 122 W/m 19,3 km/h (3 Bft) 96,00 %
15.12.2019 14:06 8,8 C 9,4 C 7,8 C 80 % 1002,5 hPa 0,0 l/m 2 min 0 min 127 W/m 29,0 km/h (5 Bft) 95,92 %
15.12.2019 14:08 8,8 C 9,4 C 7,8 C 80 % 1002,5 hPa 0,0 l/m 2 min 0 min 127 W/m 22,5 km/h (4 Bft) 94,74 %
15.12.2019 14:10 8,9 C 9,4 C 7,2 C 80 % 1002,6 hPa 0,0 l/m 2 min 0 min 125 W/m 19,3 km/h (3 Bft) 95,74 %
15.12.2019 14:12 8,9 C 9,4 C 7,2 C 79 % 1002,6 hPa 0,0 l/m 2 min 0 min 140 W/m 22,5 km/h (4 Bft) 95,92 %
15.12.2019 14:14 8,9 C 10,0 C 7,2 C 79 % 1002,6 hPa 0,0 l/m 2 min 0 min 152 W/m 29,0 km/h (5 Bft) 91,49 %
15.12.2019 14:16 8,9 C 10,0 C 7,8 C 79 % 1002,7 hPa 0,0 l/m 2 min 0 min 172 W/m 35,4 km/h (5 Bft) 95,74 %
15.12.2019 14:18 8,9 C 10,6 C 7,8 C 78 % 1002,6 hPa 0,0 l/m 2 min 0 min 205 W/m 35,4 km/h (5 Bft) 95,74 %
15.12.2019 14:20 8,9 C 10,6 C 7,8 C 78 % 1002,6 hPa 0,0 l/m 2 min 0 min 189 W/m 29,0 km/h (5 Bft) 95,83 %
15.12.2019 14:22 8,9 C 10,0 C 7,8 C 78 % 1002,7 hPa 0,0 l/m 2 min 0 min 155 W/m 19,3 km/h (3 Bft) 93,02 %
15.12.2019 14:24 9,0 C 10,0 C 7,8 C 78 % 1002,7 hPa 0,0 l/m 2 min 0 min 135 W/m 19,3 km/h (3 Bft) 95,74 %
15.12.2019 14:26 9,0 C 9,4 C 7,8 C 78 % 1002,7 hPa 0,0 l/m 2 min 0 min 128 W/m 22,5 km/h (4 Bft) 96,00 %
15.12.2019 14:28 9,0 C 9,4 C 7,2 C 78 % 1002,6 hPa 0,0 l/m 0 min 0 min 104 W/m 22,5 km/h (4 Bft) 95,74 %
15.12.2019 14:30 8,9 C 8,9 C 7,2 C 77 % 1002,6 hPa 0,0 l/m 0 min 0 min 91 W/m 32,2 km/h (5 Bft) 100,00 %
15.12.2019 14:32 8,9 C 8,9 C 7,2 C 77 % 1002,7 hPa 0,0 l/m 0 min 0 min 82 W/m 29,0 km/h (5 Bft) 100,00 %
15.12.2019 14:34 8,9 C 8,3 C 7,2 C 77 % 1002,6 hPa 0,0 l/m 0 min 0 min 80 W/m 22,5 km/h (4 Bft) 100,00 %
15.12.2019 14:36 8,9 C 8,3 C 7,2 C 77 % 1002,6 hPa 0,0 l/m 0 min 0 min 87 W/m 22,5 km/h (4 Bft) 100,00 %
15.12.2019 14:38 8,9 C 8,3 C 7,2 C 76 % 1002,7 hPa 0,0 l/m 0 min 0 min 83 W/m 16,1 km/h (3 Bft) 97,37 %
15.12.2019 14:40 8,8 C 8,3 C 7,2 C 77 % 1002,8 hPa 0,0 l/m 0 min 0 min 82 W/m 29,0 km/h (5 Bft) 100,00 %
15.12.2019 14:42 8,8 C 8,3 C 7,2 C 77 % 1002,8 hPa 0,0 l/m 0 min 0 min 77 W/m 16,1 km/h (3 Bft) 97,87 %
15.12.2019 14:44 8,8 C 8,3 C 7,2 C 77 % 1002,8 hPa 0,0 l/m 0 min 0 min 73 W/m 16,1 km/h (3 Bft) 100,00 %
15.12.2019 14:46 8,8 C 8,3 C 7,2 C 77 % 1002,8 hPa 0,0 l/m 0 min 0 min 74 W/m 22,5 km/h (4 Bft) 100,00 %
15.12.2019 14:48 8,8 C 8,3 C 7,2 C 77 % 1002,8 hPa 0,0 l/m 0 min 0 min 71 W/m 22,5 km/h (4 Bft) 100,00 %
15.12.2019 14:50 8,8 C 8,3 C 7,2 C 77 % 1002,8 hPa 0,0 l/m 0 min 0 min 71 W/m 19,3 km/h (3 Bft) 100,00 %
15.12.2019 14:52 8,8 C 8,3 C 7,2 C 77 % 1002,8 hPa 0,0 l/m 0 min 0 min 73 W/m 22,5 km/h (4 Bft) 100,00 %
15.12.2019 14:54 8,8 C 8,3 C 7,2 C 76 % 1002,8 hPa 0,0 l/m 0 min 0 min 71 W/m 22,5 km/h (4 Bft) 100,00 %
15.12.2019 14:56 8,8 C 8,3 C 7,2 C 76 % 1002,8 hPa 0,0 l/m 0 min 0 min 68 W/m 32,2 km/h (5 Bft) 100,00 %
15.12.2019 14:58 8,7 C 8,3 C 7,2 C 76 % 1002,9 hPa 0,0 l/m 0 min 0 min 65 W/m 25,7 km/h (4 Bft) 100,00 %
15.12.2019 15:00 8,7 C 8,3 C 7,2 C 76 % 1002,9 hPa 0,0 l/m 0 min 0 min 65 W/m 25,7 km/h (4 Bft) 100,00 %
15.12.2019 15:02 8,7 C 8,3 C 7,2 C 76 % 1003,0 hPa 0,0 l/m 0 min 0 min 65 W/m 22,5 km/h (4 Bft) 100,00 %
15.12.2019 15:04 8,7 C 8,3 C 7,2 C 76 % 1003,0 hPa 0,0 l/m 0 min 0 min 64 W/m 16,1 km/h (3 Bft) 100,00 %
15.12.2019 15:06 8,7 C 8,3 C 7,2 C 76 % 1003,1 hPa 0,0 l/m 0 min 0 min 61 W/m 29,0 km/h (5 Bft) 97,83 %
15.12.2019 15:08 8,7 C 8,3 C 7,2 C 76 % 1003,1 hPa 0,0 l/m 0 min 0 min 60 W/m 29,0 km/h (5 Bft) 95,24 %
15.12.2019 15:10 8,7 C 8,3 C 7,2 C 76 % 1003,2 hPa 0,0 l/m 0 min 0 min 57 W/m 19,3 km/h (3 Bft) 100,00 %
15.12.2019 15:12 8,7 C 8,3 C 7,2 C 76 % 1003,2 hPa 0,0 l/m 0 min 0 min 54 W/m 25,7 km/h (4 Bft) 100,00 %
15.12.2019 15:14 8,7 C 8,3 C 7,2 C 76 % 1003,3 hPa 0,0 l/m 0 min 0 min 51 W/m 29,0 km/h (5 Bft) 100,00 %
15.12.2019 15:16 8,7 C 8,3 C 7,2 C 75 % 1003,3 hPa 0,0 l/m 0 min 0 min 48 W/m 29,0 km/h (5 Bft) 93,48 %
15.12.2019 15:18 8,7 C 8,3 C 7,2 C 75 % 1003,3 hPa 0,0 l/m 0 min 0 min 43 W/m 25,7 km/h (4 Bft) 100,00 %
15.12.2019 15:20 8,7 C 8,3 C 7,2 C 75 % 1003,3 hPa 0,0 l/m 0 min 0 min 36 W/m 35,4 km/h (5 Bft) 100,00 %
15.12.2019 15:22 8,7 C 8,3 C 7,2 C 75 % 1003,4 hPa 0,0 l/m 0 min 0 min 33 W/m 25,7 km/h (4 Bft) 100,00 %
15.12.2019 15:24 8,7 C 8,3 C 7,2 C 75 % 1003,4 hPa 0,0 l/m 0 min 0 min 41 W/m 22,5 km/h (4 Bft) 100,00 %
15.12.2019 15:26 8,7 C 8,3 C 7,2 C 75 % 1003,4 hPa 0,0 l/m 0 min 0 min 43 W/m 19,3 km/h (3 Bft) 98,00 %
15.12.2019 15:28 8,7 C 8,3 C 7,2 C 75 % 1003,4 hPa 0,0 l/m 0 min 0 min 46 W/m 22,5 km/h (4 Bft) 100,00 %
15.12.2019 15:30 8,7 C 8,3 C 7,2 C 75 % 1003,5 hPa 0,0 l/m 0 min 0 min 45 W/m 29,0 km/h (5 Bft) 100,00 %
15.12.2019 15:32 8,7 C 7,8 C 7,2 C 75 % 1003,5 hPa 0,0 l/m 0 min 0 min 43 W/m 35,4 km/h (5 Bft) 100,00 %
15.12.2019 15:34 8,6 C 7,8 C 7,2 C 75 % 1003,6 hPa 0,0 l/m 0 min 0 min 41 W/m 29,0 km/h (5 Bft) 100,00 %
15.12.2019 15:36 8,6 C 7,8 C 7,2 C 75 % 1003,5 hPa 0,0 l/m 0 min 0 min 41 W/m 19,3 km/h (3 Bft) 97,92 %
15.12.2019 15:38 8,6 C 7,8 C 7,2 C 75 % 1003,6 hPa 0,0 l/m 0 min 0 min 37 W/m 16,1 km/h (3 Bft) 95,83 %
15.12.2019 15:40 8,6 C 7,8 C 7,2 C 75 % 1003,5 hPa 0,0 l/m 0 min 0 min 34 W/m 25,7 km/h (4 Bft) 97,87 %
15.12.2019 15:42 8,6 C 7,8 C 7,2 C 75 % 1003,6 hPa 0,0 l/m 0 min 0 min 33 W/m 22,5 km/h (4 Bft) 97,92 %
15.12.2019 15:44 8,6 C 7,8 C 7,2 C 75 % 1003,6 hPa 0,0 l/m 0 min 0 min 32 W/m 25,7 km/h (4 Bft) 97,87 %
15.12.2019 15:46 8,6 C 7,8 C 7,2 C 75 % 1003,6 hPa 0,0 l/m 0 min 0 min 32 W/m 29,0 km/h (5 Bft) 97,92 %
15.12.2019 15:48 8,6 C 7,8 C 7,2 C 75 % 1003,6 hPa 0,0 l/m 0 min 0 min 31 W/m 29,0 km/h (5 Bft) 97,92 %
15.12.2019 15:50 8,6 C 7,8 C 7,2 C 75 % 1003,7 hPa 0,0 l/m 0 min 0 min 30 W/m 19,3 km/h (3 Bft) 97,22 %
15.12.2019 15:52 8,6 C 7,8 C 7,2 C 75 % 1003,8 hPa 0,0 l/m 0 min 0 min 30 W/m 16,1 km/h (3 Bft) 97,92 %
15.12.2019 15:54 8,6 C 7,8 C 7,2 C 75 % 1003,7 hPa 0,0 l/m 2 min 0 min 32 W/m 22,5 km/h (4 Bft) 97,87 %
15.12.2019 15:56 8,6 C 7,8 C 7,2 C 75 % 1003,8 hPa 0,0 l/m 2 min 0 min 32 W/m 25,7 km/h (4 Bft) 93,75 %
15.12.2019 15:58 8,6 C 7,8 C 7,2 C 75 % 1003,8 hPa 0,0 l/m 2 min 0 min 28 W/m 25,7 km/h (4 Bft) 96,00 %
15.12.2019 16:00 8,5 C 7,8 C 7,2 C 75 % 1003,8 hPa 0,0 l/m 2 min 0 min 25 W/m 25,7 km/h (4 Bft) 97,92 %
15.12.2019 16:02 8,5 C 7,8 C 7,2 C 75 % 1003,8 hPa 0,0 l/m 2 min 0 min 22 W/m 32,2 km/h (5 Bft) 97,96 %
15.12.2019 16:04 8,5 C 7,8 C 7,2 C 75 % 1003,9 hPa 0,0 l/m 0 min 0 min 19 W/m 19,3 km/h (3 Bft) 95,74 %
15.12.2019 16:06 8,5 C 7,8 C 7,2 C 75 % 1004,0 hPa 0,0 l/m 0 min 0 min 16 W/m 19,3 km/h (3 Bft) 97,62 %
15.12.2019 16:08 8,5 C 7,8 C 6,7 C 76 % 1004,0 hPa 0,0 l/m 0 min 0 min 14 W/m 25,7 km/h (4 Bft) 92,86 %
15.12.2019 16:10 8,4 C 7,8 C 6,7 C 76 % 1004,0 hPa 0,0 l/m 0 min 0 min 12 W/m 25,7 km/h (4 Bft) 97,92 %
15.12.2019 16:12 8,4 C 7,8 C 6,7 C 76 % 1004,0 hPa 0,0 l/m 0 min 0 min 11 W/m 25,7 km/h (4 Bft) 97,92 %
15.12.2019 16:14 8,4 C 7,8 C 7,2 C 76 % 1004,0 hPa 0,0 l/m 0 min 0 min 10 W/m 25,7 km/h (4 Bft) 95,83 %
15.12.2019 16:16 8,4 C 7,8 C 6,7 C 77 % 1004,0 hPa 0,0 l/m 0 min 0 min 8 W/m 29,0 km/h (5 Bft) 95,74 %
15.12.2019 16:18 8,4 C 7,2 C 6,7 C 77 % 1004,1 hPa 0,0 l/m 0 min 0 min 7 W/m 25,7 km/h (4 Bft) 95,83 %
15.12.2019 16:20 8,4 C 7,8 C 6,7 C 77 % 1004,1 hPa 0,0 l/m 0 min 0 min 6 W/m 32,2 km/h (5 Bft) 95,83 %
15.12.2019 16:22 8,4 C 7,2 C 6,7 C 77 % 1004,1 hPa 0,0 l/m 0 min 0 min 5 W/m 29,0 km/h (5 Bft) 95,83 %
15.12.2019 16:24 8,3 C 7,2 C 6,7 C 77 % 1004,2 hPa 0,0 l/m 0 min 0 min 2 W/m 25,7 km/h (4 Bft) 100,00 %
15.12.2019 16:26 8,3 C 7,2 C 6,7 C 77 % 1004,1 hPa 0,0 l/m 0 min 0 min 0 W/m 35,4 km/h (5 Bft) 95,74 %
15.12.2019 16:28 8,3 C 7,2 C 6,7 C 78 % 1004,1 hPa 0,0 l/m 0 min 0 min 0 W/m 29,0 km/h (5 Bft) 95,83 %
15.12.2019 16:30 8,3 C 7,2 C 6,7 C 78 % 1004,1 hPa 0,0 l/m 0 min 0 min 0 W/m 25,7 km/h (4 Bft) 95,83 %
15.12.2019 16:32 8,2 C 7,2 C 6,7 C 78 % 1004,2 hPa 0,0 l/m 0 min 0 min 0 W/m 22,5 km/h (4 Bft) 97,87 %
15.12.2019 16:34 8,2 C 7,2 C 6,7 C 78 % 1004,2 hPa 0,0 l/m 0 min 0 min 0 W/m 25,7 km/h (4 Bft) 97,87 %
15.12.2019 16:36 8,2 C 7,2 C 6,7 C 78 % 1004,2 hPa 0,0 l/m 0 min 0 min 0 W/m 25,7 km/h (4 Bft) 97,87 %
15.12.2019 16:38 8,2 C 7,2 C 6,7 C 78 % 1004,3 hPa 0,0 l/m 0 min 0 min 0 W/m 35,4 km/h (5 Bft) 95,65 %
15.12.2019 16:40 8,1 C 7,2 C 6,7 C 79 % 1004,3 hPa 0,0 l/m 0 min 0 min 0 W/m 32,2 km/h (5 Bft) 98,00 %
15.12.2019 16:42 8,1 C 7,2 C 6,1 C 79 % 1004,3 hPa 0,0 l/m 0 min 0 min 0 W/m 29,0 km/h (5 Bft) 97,87 %
15.12.2019 16:44 8,1 C 7,2 C 6,7 C 79 % 1004,3 hPa 0,0 l/m 0 min 0 min 0 W/m 25,7 km/h (4 Bft) 95,74 %
15.12.2019 16:46 8,0 C 7,2 C 6,1 C 79 % 1004,3 hPa 0,0 l/m 0 min 0 min 0 W/m 19,3 km/h (3 Bft) 95,74 %
15.12.2019 16:48 8,0 C 7,2 C 6,7 C 79 % 1004,2 hPa 0,0 l/m 0 min 0 min 0 W/m 29,0 km/h (5 Bft) 94,74 %
15.12.2019 16:50 7,9 C 7,2 C 6,7 C 79 % 1004,3 hPa 0,0 l/m 0 min 0 min 0 W/m 35,4 km/h (5 Bft) 96,00 %
15.12.2019 16:52 7,9 C 7,2 C 6,7 C 79 % 1004,4 hPa 0,0 l/m 0 min 0 min 0 W/m 25,7 km/h (4 Bft) 95,65 %
15.12.2019 16:54 7,9 C 7,2 C 6,7 C 79 % 1004,4 hPa 0,0 l/m 0 min 0 min 0 W/m 25,7 km/h (4 Bft) 93,62 %
15.12.2019 16:56 7,9 C 7,2 C 6,1 C 79 % 1004,4 hPa 0,0 l/m 0 min 0 min 0 W/m 25,7 km/h (4 Bft) 93,62 %
15.12.2019 16:58 7,9 C 7,2 C 6,7 C 79 % 1004,5 hPa 0,0 l/m 0 min 0 min 0 W/m 32,2 km/h (5 Bft) 93,62 %
15.12.2019 17:00 7,9 C 7,2 C 6,7 C 79 % 1004,4 hPa 0,0 l/m 0 min 0 min 0 W/m 25,7 km/h (4 Bft) 97,96 %
15.12.2019 17:02 7,9 C 7,2 C 6,1 C 79 % 1004,5 hPa 0,0 l/m 0 min 0 min 0 W/m 22,5 km/h (4 Bft) 95,92 %
15.12.2019 17:04 7,8 C 7,2 C 6,1 C 79 % 1004,5 hPa 0,0 l/m 0 min 0 min 0 W/m 29,0 km/h (5 Bft) 95,24 %
15.12.2019 17:06 7,8 C 7,2 C 6,1 C 79 % 1004,6 hPa 0,0 l/m 0 min 0 min 0 W/m 25,7 km/h (4 Bft) 95,83 %
15.12.2019 17:08 7,8 C 7,2 C 6,1 C 79 % 1004,6 hPa 0,0 l/m 0 min 0 min 0 W/m 25,7 km/h (4 Bft) 97,92 %
15.12.2019 17:10 7,8 C 6,7 C 6,1 C 79 % 1004,7 hPa 0,0 l/m 0 min 0 min 0 W/m 16,1 km/h (3 Bft) 94,44 %
15.12.2019 17:12 7,8 C 6,7 C 6,1 C 79 % 1004,6 hPa 0,0 l/m 0 min 0 min 0 W/m 25,7 km/h (4 Bft) 98,18 %
15.12.2019 17:14 7,8 C 6,7 C 6,1 C 79 % 1004,7 hPa 0,0 l/m 0 min 0 min 0 W/m 22,5 km/h (4 Bft) 97,83 %
15.12.2019 17:16 7,8 C 6,7 C 6,1 C 79 % 1004,7 hPa 0,0 l/m 0 min 0 min 0 W/m 22,5 km/h (4 Bft) 97,87 %
15.12.2019 17:18 7,7 C 6,7 C 6,1 C 79 % 1004,7 hPa 0,0 l/m 0 min 0 min 0 W/m 22,5 km/h (4 Bft) 95,74 %
15.12.2019 17:20 7,7 C 6,7 C 6,1 C 79 % 1004,7 hPa 0,0 l/m 0 min 0 min 0 W/m 25,7 km/h (4 Bft) 97,87 %
15.12.2019 17:22 7,7 C 6,7 C 6,1 C 79 % 1004,7 hPa 0,0 l/m 0 min 0 min 0 W/m 25,7 km/h (4 Bft) 97,87 %
15.12.2019 17:24 7,7 C 6,7 C 6,1 C 79 % 1004,7 hPa 0,0 l/m 0 min 0 min 0 W/m 38,6 km/h (5 Bft) 97,87 %
15.12.2019 17:26 7,7 C 6,7 C 6,1 C 79 % 1004,8 hPa 0,0 l/m 0 min 0 min 0 W/m 22,5 km/h (4 Bft) 91,84 %
15.12.2019 17:28 7,7 C 6,7 C 6,1 C 79 % 1004,8 hPa 0,0 l/m 0 min 0 min 0 W/m 22,5 km/h (4 Bft) 97,87 %
15.12.2019 17:30 7,6 C 6,7 C 6,1 C 79 % 1004,8 hPa 0,0 l/m 0 min 0 min 0 W/m 38,6 km/h (5 Bft) 95,74 %
15.12.2019 17:32 7,6 C 6,7 C 6,1 C 79 % 1004,8 hPa 0,0 l/m 0 min 0 min 0 W/m 19,3 km/h (3 Bft) 97,87 %
15.12.2019 17:34 7,6 C 6,7 C 6,1 C 79 % 1004,8 hPa 0,0 l/m 0 min 0 min 0 W/m 19,3 km/h (3 Bft) 97,87 %
15.12.2019 17:36 7,6 C 6,7 C 6,1 C 79 % 1004,8 hPa 0,0 l/m 0 min 0 min 0 W/m 19,3 km/h (3 Bft) 97,87 %
15.12.2019 17:38 7,6 C 6,7 C 6,1 C 79 % 1004,9 hPa 0,0 l/m 0 min 0 min 0 W/m 19,3 km/h (3 Bft) 97,83 %
15.12.2019 17:40 7,6 C 6,7 C 6,1 C 79 % 1005,0 hPa 0,0 l/m 0 min 0 min 0 W/m 19,3 km/h (3 Bft) 97,62 %
15.12.2019 17:42 7,6 C 6,7 C 6,1 C 79 % 1005,0 hPa 0,0 l/m 0 min 0 min 0 W/m 19,3 km/h (3 Bft) 96,36 %
15.12.2019 17:44 7,6 C 6,7 C 6,1 C 79 % 1005,1 hPa 0,0 l/m 0 min 0 min 0 W/m 25,7 km/h (4 Bft) 97,37 %
15.12.2019 17:46 7,5 C 6,7 C 6,1 C 79 % 1005,1 hPa 0,0 l/m 0 min 0 min 0 W/m 16,1 km/h (3 Bft) 97,87 %
15.12.2019 17:48 7,5 C 6,7 C 6,1 C 79 % 1005,1 hPa 0,0 l/m 0 min 0 min 0 W/m 25,7 km/h (4 Bft) 97,96 %
15.12.2019 17:50 7,5 C 6,7 C 6,1 C 79 % 1005,2 hPa 0,0 l/m 0 min 0 min 0 W/m 25,7 km/h (4 Bft) 97,87 %
15.12.2019 17:52 7,5 C 6,7 C 6,1 C 79 % 1005,2 hPa 0,0 l/m 0 min 0 min 0 W/m 22,5 km/h (4 Bft) 100,00 %
15.12.2019 17:54 7,4 C 6,7 C 6,1 C 79 % 1005,2 hPa 0,0 l/m 0 min 0 min 0 W/m 25,7 km/h (4 Bft) 100,00 %
15.12.2019 17:56 7,4 C 6,7 C 6,1 C 78 % 1005,2 hPa 0,0 l/m 0 min 0 min 0 W/m 19,3 km/h (3 Bft) 100,00 %
15.12.2019 17:58 7,4 C 6,7 C 6,1 C 78 % 1005,3 hPa 0,0 l/m 0 min 0 min 0 W/m 29,0 km/h (5 Bft) 100,00 %
15.12.2019 18:00 7,4 C 6,7 C 6,1 C 79 % 1005,4 hPa 0,0 l/m 0 min 0 min 0 W/m 22,5 km/h (4 Bft) 100,00 %
15.12.2019 18:02 7,4 C 6,7 C 6,1 C 79 % 1005,3 hPa 0,0 l/m 0 min 0 min 0 W/m 19,3 km/h (3 Bft) 97,62 %
15.12.2019 18:04 7,4 C 6,7 C 6,1 C 79 % 1005,4 hPa 0,0 l/m 0 min 0 min 0 W/m 29,0 km/h (5 Bft) 100,00 %
15.12.2019 18:08 7,4 C 6,7 C 6,1 C 79 % 1005,5 hPa 0,0 l/m 0 min 0 min 0 W/m 19,3 km/h (3 Bft) 98,98 %
15.12.2019 18:10 7,4 C 6,7 C 6,1 C 79 % 1005,5 hPa 0,0 l/m 0 min 0 min 0 W/m 22,5 km/h (4 Bft) 100,00 %
15.12.2019 18:12 7,4 C 6,7 C 6,1 C 79 % 1005,4 hPa 0,0 l/m 0 min 0 min 0 W/m 25,7 km/h (4 Bft) 95,74 %
15.12.2019 18:14 7,4 C 6,7 C 5,6 C 79 % 1005,5 hPa 0,0 l/m 0 min 0 min 0 W/m 22,5 km/h (4 Bft) 100,00 %
15.12.2019 18:16 7,4 C 6,7 C 5,6 C 79 % 1005,6 hPa 0,0 l/m 0 min 0 min 0 W/m 19,3 km/h (3 Bft) 100,00 %
15.12.2019 18:18 7,3 C 6,7 C 5,6 C 79 % 1005,6 hPa 0,0 l/m 0 min 0 min 0 W/m 19,3 km/h (3 Bft) 100,00 %
15.12.2019 18:20 7,3 C 6,1 C 5,6 C 79 % 1005,6 hPa 0,0 l/m 0 min 0 min 0 W/m 16,1 km/h (3 Bft) 100,00 %
15.12.2019 18:22 7,3 C 6,1 C 5,6 C 79 % 1005,6 hPa 0,0 l/m 0 min 0 min 0 W/m 22,5 km/h (4 Bft) 100,00 %
15.12.2019 18:24 7,3 C 6,1 C 5,6 C 79 % 1005,6 hPa 0,0 l/m 0 min 0 min 0 W/m 19,3 km/h (3 Bft) 100,00 %
15.12.2019 18:26 7,3 C 6,7 C 5,6 C 79 % 1005,6 hPa 0,0 l/m 0 min 0 min 0 W/m 32,2 km/h (5 Bft) 97,37 %
15.12.2019 18:28 7,3 C 6,7 C 5,6 C 79 % 1005,6 hPa 0,0 l/m 0 min 0 min 0 W/m 22,5 km/h (4 Bft) 100,00 %
15.12.2019 18:30 7,3 C 6,1 C 5,6 C 79 % 1005,6 hPa 0,0 l/m 0 min 0 min 0 W/m 22,5 km/h (4 Bft) 97,87 %
15.12.2019 18:32 7,2 C 6,1 C 5,6 C 79 % 1005,6 hPa 0,0 l/m 0 min 0 min 0 W/m 25,7 km/h (4 Bft) 95,74 %
15.12.2019 18:34 7,2 C 6,7 C 5,6 C 79 % 1005,6 hPa 0,0 l/m 0 min 0 min 0 W/m 19,3 km/h (3 Bft) 97,87 %
15.12.2019 18:36 7,2 C 6,7 C 5,6 C 79 % 1005,6 hPa 0,0 l/m 0 min 0 min 0 W/m 19,3 km/h (3 Bft) 97,96 %
15.12.2019 18:38 7,2 C 6,7 C 5,6 C 79 % 1005,6 hPa 0,0 l/m 0 min 0 min 0 W/m 32,2 km/h (5 Bft) 97,96 %
15.12.2019 18:40 7,2 C 6,7 C 5,6 C 79 % 1005,7 hPa 0,0 l/m 0 min 0 min 0 W/m 25,7 km/h (4 Bft) 97,92 %
15.12.2019 18:42 7,2 C 6,7 C 5,6 C 79 % 1005,7 hPa 0,0 l/m 0 min 0 min 0 W/m 25,7 km/h (4 Bft) 95,83 %
15.12.2019 18:44 7,2 C 6,7 C 5,6 C 79 % 1005,7 hPa 0,0 l/m 0 min 0 min 0 W/m 22,5 km/h (4 Bft) 95,74 %
15.12.2019 18:46 7,2 C 6,7 C 5,6 C 79 % 1005,8 hPa 0,0 l/m 0 min 0 min 0 W/m 29,0 km/h (5 Bft) 94,44 %
15.12.2019 18:48 7,2 C 6,1 C 5,6 C 79 % 1005,8 hPa 0,0 l/m 0 min 0 min 0 W/m 19,3 km/h (3 Bft) 97,92 %
15.12.2019 18:50 7,2 C 6,1 C 5,6 C 79 % 1005,8 hPa 0,0 l/m 0 min 0 min 0 W/m 16,1 km/h (3 Bft) 93,75 %
15.12.2019 18:52 7,2 C 6,1 C 5,6 C 79 % 1005,8 hPa 0,0 l/m 0 min 0 min 0 W/m 19,3 km/h (3 Bft) 97,92 %
15.12.2019 18:54 7,2 C 6,1 C 5,6 C 79 % 1005,8 hPa 0,0 l/m 0 min 0 min 0 W/m 22,5 km/h (4 Bft) 95,83 %
15.12.2019 18:56 7,1 C 6,1 C 5,6 C 79 % 1005,8 hPa 0,0 l/m 0 min 0 min 0 W/m 22,5 km/h (4 Bft) 97,87 %
15.12.2019 18:58 7,1 C 6,1 C 5,6 C 79 % 1005,8 hPa 0,0 l/m 0 min 0 min 0 W/m 25,7 km/h (4 Bft) 96,00 %
15.12.2019 19:00 7,1 C 6,1 C 5,6 C 79 % 1005,9 hPa 0,0 l/m 0 min 0 min 0 W/m 22,5 km/h (4 Bft) 95,74 %
15.12.2019 19:02 7,1 C 6,1 C 5,6 C 79 % 1006,0 hPa 0,0 l/m 0 min 0 min 0 W/m 25,7 km/h (4 Bft) 92,86 %
15.12.2019 19:04 7,1 C 6,1 C 5,6 C 79 % 1006,0 hPa 0,0 l/m 0 min 0 min 0 W/m 19,3 km/h (3 Bft) 96,00 %
15.12.2019 19:06 7,1 C 6,1 C 5,6 C 79 % 1006,0 hPa 0,0 l/m 0 min 0 min 0 W/m 16,1 km/h (3 Bft) 92,00 %
15.12.2019 19:08 7,0 C 6,1 C 5,6 C 79 % 1006,0 hPa 0,0 l/m 0 min 0 min 0 W/m 16,1 km/h (3 Bft) 95,92 %
15.12.2019 19:10 7,0 C 6,1 C 5,6 C 79 % 1006,1 hPa 0,0 l/m 0 min 0 min 0 W/m 19,3 km/h (3 Bft) 89,36 %
15.12.2019 19:12 7,0 C 6,1 C 5,6 C 79 % 1006,2 hPa 0,0 l/m 0 min 0 min 0 W/m 16,1 km/h (3 Bft) 95,74 %
15.12.2019 19:14 6,9 C 6,1 C 5,6 C 79 % 1006,2 hPa 0,0 l/m 0 min 0 min 0 W/m 19,3 km/h (3 Bft) 95,74 %
15.12.2019 19:16 6,9 C 6,1 C 5,6 C 79 % 1006,2 hPa 0,0 l/m 0 min 0 min 0 W/m 22,5 km/h (4 Bft) 97,37 %
15.12.2019 19:18 6,9 C 6,1 C 5,6 C 79 % 1006,2 hPa 0,0 l/m 0 min 0 min 0 W/m 16,1 km/h (3 Bft) 95,74 %
15.12.2019 19:20 6,9 C 6,1 C 5,0 C 79 % 1006,2 hPa 0,0 l/m 0 min 0 min 0 W/m 16,1 km/h (3 Bft) 95,92 %
15.12.2019 19:22 6,9 C 6,1 C 5,0 C 79 % 1006,2 hPa 0,0 l/m 0 min 0 min 0 W/m 19,3 km/h (3 Bft) 97,92 %
15.12.2019 19:24 6,9 C 6,1 C 5,0 C 79 % 1006,3 hPa 0,0 l/m 0 min 0 min 0 W/m 25,7 km/h (4 Bft) 97,92 %
15.12.2019 19:26 6,8 C 6,1 C 5,0 C 79 % 1006,2 hPa 0,0 l/m 0 min 0 min 0 W/m 16,1 km/h (3 Bft) 97,92 %
15.12.2019 19:28 6,8 C 6,1 C 5,0 C 79 % 1006,3 hPa 0,0 l/m 0 min 0 min 0 W/m 12,9 km/h (3 Bft) 93,75 %
15.12.2019 19:30 6,8 C 6,1 C 5,0 C 79 % 1006,3 hPa 0,0 l/m 0 min 0 min 0 W/m 19,3 km/h (3 Bft) 97,83 %
15.12.2019 19:32 6,8 C 6,1 C 5,0 C 80 % 1006,3 hPa 0,0 l/m 0 min 0 min 0 W/m 22,5 km/h (4 Bft) 97,22 %
15.12.2019 19:34 6,8 C 6,1 C 5,0 C 80 % 1006,4 hPa 0,0 l/m 0 min 0 min 0 W/m 16,1 km/h (3 Bft) 96,30 %
15.12.2019 19:36 6,8 C 6,1 C 5,0 C 80 % 1006,4 hPa 0,0 l/m 0 min 0 min 0 W/m 19,3 km/h (3 Bft) 96,00 %
15.12.2019 19:38 6,7 C 6,1 C 5,0 C 80 % 1006,5 hPa 0,0 l/m 0 min 0 min 0 W/m 25,7 km/h (4 Bft) 97,87 %
15.12.2019 19:40 6,7 C 6,1 C 5,0 C 80 % 1006,5 hPa 0,0 l/m 0 min 0 min 0 W/m 25,7 km/h (4 Bft) 100,00 %
15.12.2019 19:42 6,7 C 6,1 C 5,0 C 80 % 1006,5 hPa 0,0 l/m 0 min 0 min 0 W/m 22,5 km/h (4 Bft) 100,00 %
15.12.2019 19:44 6,7 C 6,1 C 5,6 C 80 % 1006,5 hPa 0,0 l/m 0 min 0 min 0 W/m 25,7 km/h (4 Bft) 100,00 %
15.12.2019 19:46 6,7 C 6,1 C 5,0 C 80 % 1006,6 hPa 0,0 l/m 0 min 0 min 0 W/m 16,1 km/h (3 Bft) 95,74 %
15.12.2019 19:48 6,7 C 6,1 C 5,0 C 80 % 1006,7 hPa 0,0 l/m 0 min 0 min 0 W/m 16,1 km/h (3 Bft) 97,87 %
15.12.2019 19:50 6,7 C 6,1 C 5,0 C 80 % 1006,7 hPa 0,0 l/m 0 min 0 min 0 W/m 25,7 km/h (4 Bft) 100,00 %
15.12.2019 19:52 6,7 C 6,1 C 5,0 C 80 % 1006,7 hPa 0,0 l/m 0 min 0 min 0 W/m 19,3 km/h (3 Bft) 100,00 %
15.12.2019 19:54 6,7 C 6,1 C 5,0 C 80 % 1006,7 hPa 0,0 l/m 0 min 0 min 0 W/m 19,3 km/h (3 Bft) 100,00 %
15.12.2019 19:56 6,7 C 6,1 C 5,0 C 80 % 1006,7 hPa 0,0 l/m 0 min 0 min 0 W/m 25,7 km/h (4 Bft) 100,00 %
15.12.2019 19:58 6,7 C 6,1 C 5,0 C 80 % 1006,8 hPa 0,0 l/m 0 min 0 min 0 W/m 16,1 km/h (3 Bft) 56,52 %
15.12.2019 20:00 6,7 C 5,6 C 5,0 C 80 % 1006,9 hPa 0,0 l/m 0 min 0 min 0 W/m 16,1 km/h (3 Bft) 100,00 %
15.12.2019 20:02 6,7 C 5,6 C 5,0 C 80 % 1006,9 hPa 0,0 l/m 0 min 0 min 0 W/m 16,1 km/h (3 Bft) 97,87 %
15.12.2019 20:04 6,6 C 5,6 C 5,0 C 80 % 1006,9 hPa 0,0 l/m 0 min 0 min 0 W/m 22,5 km/h (4 Bft) 100,00 %
15.12.2019 20:06 6,6 C 5,6 C 5,0 C 80 % 1007,0 hPa 0,0 l/m 0 min 0 min 0 W/m 19,3 km/h (3 Bft) 100,00 %
15.12.2019 20:08 6,6 C 5,6 C 5,0 C 80 % 1007,0 hPa 0,0 l/m 0 min 0 min 0 W/m 16,1 km/h (3 Bft) 100,00 %
15.12.2019 20:10 6,6 C 5,6 C 5,0 C 80 % 1007,0 hPa 0,0 l/m 0 min 0 min 0 W/m 16,1 km/h (3 Bft) 100,00 %
15.12.2019 20:12 6,6 C 5,6 C 5,0 C 80 % 1007,1 hPa 0,0 l/m 0 min 0 min 0 W/m 16,1 km/h (3 Bft) 100,00 %
15.12.2019 20:14 6,6 C 5,6 C 5,0 C 80 % 1007,0 hPa 0,0 l/m 0 min 0 min 0 W/m 16,1 km/h (3 Bft) 100,00 %
15.12.2019 20:16 6,6 C 5,6 C 5,0 C 80 % 1007,0 hPa 0,0 l/m 0 min 0 min 0 W/m 16,1 km/h (3 Bft) 100,00 %
15.12.2019 20:18 6,6 C 5,6 C 5,0 C 80 % 1007,1 hPa 0,0 l/m 0 min 0 min 0 W/m 25,7 km/h (4 Bft) 100,00 %
15.12.2019 20:20 6,6 C 5,6 C 5,0 C 80 % 1007,1 hPa 0,0 l/m 0 min 0 min 0 W/m 16,1 km/h (3 Bft) 97,87 %
15.12.2019 20:22 6,5 C 5,6 C 5,0 C 80 % 1007,1 hPa 0,0 l/m 0 min 0 min 0 W/m 12,9 km/h (3 Bft) 100,00 %
15.12.2019 20:24 6,5 C 5,6 C 5,0 C 80 % 1007,1 hPa 0,0 l/m 0 min 0 min 0 W/m 25,7 km/h (4 Bft) 100,00 %
15.12.2019 20:26 6,5 C 5,6 C 5,0 C 80 % 1007,1 hPa 0,0 l/m 0 min 0 min 0 W/m 16,1 km/h (3 Bft) 97,87 %
15.12.2019 20:28 6,5 C 5,6 C 4,4 C 81 % 1007,1 hPa 0,0 l/m 0 min 0 min 0 W/m 22,5 km/h (4 Bft) 100,00 %
15.12.2019 20:30 6,4 C 5,6 C 5,0 C 81 % 1007,2 hPa 0,0 l/m 0 min 0 min 0 W/m 19,3 km/h (3 Bft) 100,00 %
15.12.2019 20:32 6,4 C 5,6 C 5,0 C 81 % 1007,2 hPa 0,0 l/m 0 min 0 min 0 W/m 25,7 km/h (4 Bft) 100,00 %
15.12.2019 20:34 6,4 C 5,6 C 5,0 C 81 % 1007,2 hPa 0,0 l/m 0 min 0 min 0 W/m 19,3 km/h (3 Bft) 100,00 %
15.12.2019 20:36 6,4 C 5,6 C 5,0 C 81 % 1007,3 hPa 0,0 l/m 0 min 0 min 0 W/m 19,3 km/h (3 Bft) 93,62 %
15.12.2019 20:38 6,4 C 5,6 C 5,0 C 81 % 1007,3 hPa 0,0 l/m 0 min 0 min 0 W/m 19,3 km/h (3 Bft) 95,74 %
15.12.2019 20:40 6,4 C 5,6 C 5,0 C 81 % 1007,3 hPa 0,0 l/m 0 min 0 min 0 W/m 19,3 km/h (3 Bft) 97,87 %
15.12.2019 20:42 6,4 C 5,6 C 5,0 C 81 % 1007,3 hPa 0,0 l/m 0 min 0 min 0 W/m 25,7 km/h (4 Bft) 97,83 %
15.12.2019 20:44 6,4 C 5,6 C 5,0 C 81 % 1007,3 hPa 0,0 l/m 0 min 0 min 0 W/m 16,1 km/h (3 Bft) 97,87 %
15.12.2019 20:46 6,4 C 5,6 C 5,0 C 81 % 1007,3 hPa 0,0 l/m 0 min 0 min 0 W/m 19,3 km/h (3 Bft) 97,87 %
15.12.2019 20:48 6,3 C 5,6 C 4,4 C 81 % 1007,3 hPa 0,0 l/m 0 min 0 min 0 W/m 16,1 km/h (3 Bft) 97,87 %
15.12.2019 20:50 6,3 C 5,6 C 4,4 C 81 % 1007,3 hPa 0,0 l/m 0 min 0 min 0 W/m 22,5 km/h (4 Bft) 95,74 %
15.12.2019 20:52 6,3 C 5,6 C 4,4 C 81 % 1007,4 hPa 0,0 l/m 0 min 0 min 0 W/m 19,3 km/h (3 Bft) 97,87 %
15.12.2019 20:54 6,3 C 5,6 C 4,4 C 81 % 1007,4 hPa 0,0 l/m 0 min 0 min 0 W/m 19,3 km/h (3 Bft) 97,83 %
15.12.2019 20:56 6,3 C 5,6 C 4,4 C 81 % 1007,5 hPa 0,0 l/m 0 min 0 min 0 W/m 25,7 km/h (4 Bft) 97,87 %
15.12.2019 20:58 6,3 C 5,6 C 4,4 C 81 % 1007,5 hPa 0,0 l/m 0 min 0 min 0 W/m 19,3 km/h (3 Bft) 97,87 %
15.12.2019 21:00 6,2 C 5,6 C 4,4 C 81 % 1007,5 hPa 0,0 l/m 0 min 0 min 0 W/m 19,3 km/h (3 Bft) 97,87 %
15.12.2019 21:02 6,2 C 5,0 C 4,4 C 81 % 1007,5 hPa 0,0 l/m 0 min 0 min 0 W/m 16,1 km/h (3 Bft) 97,87 %
15.12.2019 21:04 6,2 C 5,0 C 4,4 C 82 % 1007,5 hPa 0,0 l/m 0 min 0 min 0 W/m 19,3 km/h (3 Bft) 97,83 %
15.12.2019 21:06 6,2 C 5,0 C 4,4 C 82 % 1007,4 hPa 0,0 l/m 0 min 0 min 0 W/m 16,1 km/h (3 Bft) 97,87 %
15.12.2019 21:08 6,2 C 5,0 C 4,4 C 82 % 1007,5 hPa 0,0 l/m 0 min 0 min 0 W/m 16,1 km/h (3 Bft) 97,87 %
15.12.2019 21:10 6,1 C 5,0 C 4,4 C 82 % 1007,5 hPa 0,0 l/m 0 min 0 min 0 W/m 12,9 km/h (3 Bft) 97,87 %
15.12.2019 21:12 6,1 C 5,0 C 4,4 C 82 % 1007,5 hPa 0,0 l/m 0 min 0 min 0 W/m 16,1 km/h (3 Bft) 95,74 %
15.12.2019 21:14 6,1 C 5,0 C 3,9 C 82 % 1007,5 hPa 0,0 l/m 0 min 0 min 0 W/m 19,3 km/h (3 Bft) 97,87 %
15.12.2019 21:16 6,1 C 5,0 C 3,9 C 82 % 1007,5 hPa 0,0 l/m 0 min 0 min 0 W/m 19,3 km/h (3 Bft) 95,65 %
15.12.2019 21:18 6,0 C 5,0 C 3,9 C 82 % 1007,5 hPa 0,0 l/m 0 min 0 min 0 W/m 6,4 km/h (2 Bft) 97,87 %
15.12.2019 21:20 6,0 C 5,0 C 3,9 C 82 % 1007,5 hPa 0,0 l/m 0 min 0 min 0 W/m 16,1 km/h (3 Bft) 95,74 %
15.12.2019 21:22 5,9 C 5,0 C 3,9 C 82 % 1007,5 hPa 0,0 l/m 0 min 0 min 0 W/m 16,1 km/h (3 Bft) 91,49 %
15.12.2019 21:24 5,9 C 5,0 C 3,9 C 82 % 1007,6 hPa 0,0 l/m 0 min 0 min 0 W/m 16,1 km/h (3 Bft) 95,74 %
15.12.2019 21:26 5,9 C 4,4 C 3,9 C 82 % 1007,6 hPa 0,0 l/m 0 min 0 min 0 W/m 12,9 km/h (3 Bft) 91,49 %
15.12.2019 21:28 5,8 C 4,4 C 3,9 C 82 % 1007,6 hPa 0,0 l/m 0 min 0 min 0 W/m 16,1 km/h (3 Bft) 93,48 %
15.12.2019 21:30 5,8 C 4,4 C 3,9 C 82 % 1007,7 hPa 0,0 l/m 0 min 0 min 0 W/m 12,9 km/h (3 Bft) 93,62 %
15.12.2019 21:32 5,8 C 4,4 C 3,9 C 82 % 1007,7 hPa 0,0 l/m 0 min 0 min 0 W/m 12,9 km/h (3 Bft) 93,62 %
15.12.2019 21:34 5,7 C 4,4 C 3,9 C 83 % 1007,7 hPa 0,0 l/m 0 min 0 min 0 W/m 12,9 km/h (3 Bft) 93,62 %
15.12.2019 21:36 5,7 C 4,4 C 3,9 C 83 % 1007,7 hPa 0,0 l/m 0 min 0 min 0 W/m 6,4 km/h (2 Bft) 93,62 %
15.12.2019 21:38 5,7 C 4,4 C 3,9 C 83 % 1007,7 hPa 0,0 l/m 0 min 0 min 0 W/m 12,9 km/h (3 Bft) 91,49 %
15.12.2019 21:40 5,6 C 4,4 C 3,9 C 83 % 1007,7 hPa 0,0 l/m 0 min 0 min 0 W/m 12,9 km/h (3 Bft) 91,30 %
15.12.2019 21:42 5,6 C 4,4 C 3,9 C 83 % 1007,7 hPa 0,0 l/m 0 min 0 min 0 W/m 6,4 km/h (2 Bft) 95,74 %
15.12.2019 21:44 5,6 C 4,4 C 3,3 C 83 % 1007,7 hPa 0,0 l/m 0 min 0 min 0 W/m 6,4 km/h (2 Bft) 93,62 %
15.12.2019 21:46 5,6 C 4,4 C 3,3 C 83 % 1007,8 hPa 0,0 l/m 0 min 0 min 0 W/m 12,9 km/h (3 Bft) 95,74 %
15.12.2019 21:48 5,5 C 4,4 C 3,3 C 83 % 1007,7 hPa 0,0 l/m 0 min 0 min 0 W/m 16,1 km/h (3 Bft) 95,74 %
15.12.2019 21:50 5,4 C 3,9 C 3,3 C 83 % 1007,8 hPa 0,0 l/m 0 min 0 min 0 W/m 6,4 km/h (2 Bft) 95,74 %
15.12.2019 21:52 5,4 C 3,9 C 3,3 C 83 % 1007,8 hPa 0,0 l/m 0 min 0 min 0 W/m 6,4 km/h (2 Bft) 95,65 %
15.12.2019 21:54 5,4 C 3,9 C 3,3 C 83 % 1007,8 hPa 0,0 l/m 0 min 0 min 0 W/m 6,4 km/h (2 Bft) 93,62 %
15.12.2019 21:56 5,3 C 3,9 C 3,3 C 83 % 1007,8 hPa 0,0 l/m 0 min 0 min 0 W/m 6,4 km/h (2 Bft) 89,36 %
15.12.2019 21:58 5,3 C 3,9 C 3,3 C 84 % 1007,8 hPa 0,0 l/m 0 min 0 min 0 W/m 6,4 km/h (2 Bft) 97,87 %
15.12.2019 22:00 5,3 C 3,9 C 3,3 C 84 % 1007,8 hPa 0,0 l/m 0 min 0 min 0 W/m 6,4 km/h (2 Bft) 95,74 %
15.12.2019 22:02 5,2 C 3,9 C 3,3 C 84 % 1007,8 hPa 0,0 l/m 0 min 0 min 0 W/m 12,9 km/h (3 Bft) 95,74 %
15.12.2019 22:04 5,2 C 3,9 C 3,3 C 84 % 1007,7 hPa 0,0 l/m 0 min 0 min 0 W/m 16,1 km/h (3 Bft) 95,65 %
15.12.2019 22:06 5,2 C 3,9 C 3,3 C 84 % 1007,7 hPa 0,0 l/m 0 min 0 min 0 W/m 12,9 km/h (3 Bft) 97,87 %
15.12.2019 22:08 5,1 C 3,9 C 3,3 C 84 % 1007,6 hPa 0,0 l/m 0 min 0 min 0 W/m 12,9 km/h (3 Bft) 100,00 %
15.12.2019 22:10 5,1 C 3,9 C 3,3 C 84 % 1007,7 hPa 0,0 l/m 0 min 0 min 0 W/m 12,9 km/h (3 Bft) 97,87 %
15.12.2019 22:12 5,1 C 3,9 C 3,3 C 84 % 1007,7 hPa 0,0 l/m 0 min 0 min 0 W/m 12,9 km/h (3 Bft) 95,74 %
15.12.2019 22:14 5,0 C 3,9 C 3,3 C 85 % 1007,7 hPa 0,0 l/m 0 min 0 min 0 W/m 6,4 km/h (2 Bft) 95,65 %
15.12.2019 22:16 5,0 C 3,9 C 3,3 C 85 % 1007,8 hPa 0,0 l/m 0 min 0 min 0 W/m 12,9 km/h (3 Bft) 97,87 %
15.12.2019 22:18 4,9 C 3,9 C 3,3 C 85 % 1007,8 hPa 0,0 l/m 0 min 0 min 0 W/m 12,9 km/h (3 Bft) 97,87 %
15.12.2019 22:20 4,9 C 3,9 C 3,3 C 85 % 1007,8 hPa 0,0 l/m 0 min 0 min 0 W/m 12,9 km/h (3 Bft) 97,87 %
15.12.2019 22:22 4,9 C 3,9 C 3,3 C 85 % 1007,8 hPa 0,0 l/m 0 min 0 min 0 W/m 12,9 km/h (3 Bft) 100,00 %
15.12.2019 22:24 4,9 C 3,9 C 3,3 C 85 % 1007,8 hPa 0,0 l/m 0 min 0 min 0 W/m 12,9 km/h (3 Bft) 95,74 %
15.12.2019 22:26 4,9 C 3,9 C 3,3 C 85 % 1007,8 hPa 0,0 l/m 0 min 0 min 0 W/m 16,1 km/h (3 Bft) 100,00 %
15.12.2019 22:28 4,8 C 3,9 C 3,3 C 85 % 1007,8 hPa 0,0 l/m 0 min 0 min 0 W/m 19,3 km/h (3 Bft) 100,00 %
15.12.2019 22:30 4,8 C 3,9 C 3,3 C 85 % 1007,8 hPa 0,0 l/m 0 min 0 min 0 W/m 12,9 km/h (3 Bft) 100,00 %
15.12.2019 22:32 4,8 C 3,9 C 3,3 C 85 % 1007,7 hPa 0,0 l/m 0 min 0 min 0 W/m 6,4 km/h (2 Bft) 100,00 %
15.12.2019 22:34 4,8 C 3,9 C 3,3 C 85 % 1007,8 hPa 0,0 l/m 0 min 0 min 0 W/m 12,9 km/h (3 Bft) 100,00 %
15.12.2019 22:36 4,8 C 3,9 C 2,8 C 85 % 1007,8 hPa 0,0 l/m 0 min 0 min 0 W/m 6,4 km/h (2 Bft) 97,87 %
15.12.2019 22:38 4,8 C 3,9 C 2,8 C 85 % 1007,8 hPa 0,0 l/m 0 min 0 min 0 W/m 12,9 km/h (3 Bft) 100,00 %
15.12.2019 22:40 4,7 C 3,9 C 2,8 C 85 % 1007,8 hPa 0,0 l/m 0 min 0 min 0 W/m 16,1 km/h (3 Bft) 100,00 %
15.12.2019 22:42 4,7 C 3,9 C 2,8 C 86 % 1007,7 hPa 0,0 l/m 0 min 0 min 0 W/m 12,9 km/h (3 Bft) 100,00 %
15.12.2019 22:44 4,7 C 3,9 C 2,8 C 86 % 1007,7 hPa 0,0 l/m 0 min 0 min 0 W/m 12,9 km/h (3 Bft) 100,00 %
15.12.2019 22:46 4,7 C 3,9 C 2,8 C 85 % 1007,7 hPa 0,0 l/m 0 min 0 min 0 W/m 16,1 km/h (3 Bft) 100,00 %
15.12.2019 22:48 4,7 C 3,9 C 2,8 C 85 % 1007,7 hPa 0,0 l/m 0 min 0 min 0 W/m 16,1 km/h (3 Bft) 100,00 %
15.12.2019 22:50 4,7 C 3,9 C 2,8 C 86 % 1007,7 hPa 0,0 l/m 0 min 0 min 0 W/m 19,3 km/h (3 Bft) 100,00 %
15.12.2019 22:52 4,6 C 3,3 C 2,8 C 86 % 1007,6 hPa 0,0 l/m 0 min 0 min 0 W/m 6,4 km/h (2 Bft) 100,00 %
15.12.2019 22:54 4,6 C 3,3 C 2,8 C 86 % 1007,7 hPa 0,0 l/m 0 min 0 min 0 W/m 16,1 km/h (3 Bft) 97,87 %
15.12.2019 22:56 4,6 C 3,3 C 2,8 C 86 % 1007,7 hPa 0,0 l/m 0 min 0 min 0 W/m 12,9 km/h (3 Bft) 100,00 %
15.12.2019 22:58 4,6 C 3,3 C 2,8 C 86 % 1007,7 hPa 0,0 l/m 0 min 0 min 0 W/m 12,9 km/h (3 Bft) 100,00 %
15.12.2019 23:00 4,5 C 3,3 C 2,8 C 86 % 1007,7 hPa 0,0 l/m 0 min 0 min 0 W/m 16,1 km/h (3 Bft) 97,83 %
15.12.2019 23:02 4,5 C 3,3 C 2,8 C 86 % 1007,7 hPa 0,0 l/m 0 min 0 min 0 W/m 16,1 km/h (3 Bft) 100,00 %
15.12.2019 23:04 4,4 C 3,3 C 2,8 C 86 % 1007,8 hPa 0,0 l/m 0 min 0 min 0 W/m 16,1 km/h (3 Bft) 100,00 %
15.12.2019 23:06 4,4 C 3,3 C 2,8 C 86 % 1007,8 hPa 0,0 l/m 0 min 0 min 0 W/m 12,9 km/h (3 Bft) 100,00 %
15.12.2019 23:08 4,4 C 3,3 C 2,8 C 86 % 1007,8 hPa 0,0 l/m 0 min 0 min 0 W/m 12,9 km/h (3 Bft) 100,00 %
15.12.2019 23:10 4,4 C 3,3 C 2,8 C 86 % 1007,8 hPa 0,0 l/m 0 min 0 min 0 W/m 6,4 km/h (2 Bft) 100,00 %
15.12.2019 23:12 4,4 C 3,3 C 2,8 C 86 % 1007,9 hPa 0,0 l/m 0 min 0 min 0 W/m 6,4 km/h (2 Bft) 100,00 %
15.12.2019 23:14 4,4 C 3,9 C 2,8 C 86 % 1007,8 hPa 0,0 l/m 0 min 0 min 0 W/m 12,9 km/h (3 Bft) 100,00 %
15.12.2019 23:16 4,3 C 3,3 C 2,8 C 86 % 1007,8 hPa 0,0 l/m 0 min 0 min 0 W/m 6,4 km/h (2 Bft) 100,00 %
15.12.2019 23:18 4,3 C 3,9 C 2,8 C 86 % 1007,8 hPa 0,0 l/m 0 min 0 min 0 W/m 6,4 km/h (2 Bft) 100,00 %
15.12.2019 23:20 4,3 C 3,9 C 2,8 C 86 % 1007,7 hPa 0,0 l/m 0 min 0 min 0 W/m 12,9 km/h (3 Bft) 100,00 %
15.12.2019 23:22 4,3 C 3,9 C 2,8 C 86 % 1007,8 hPa 0,0 l/m 0 min 0 min 0 W/m 12,9 km/h (3 Bft) 97,87 %
15.12.2019 23:24 4,3 C 3,9 C 2,8 C 86 % 1007,8 hPa 0,0 l/m 0 min 0 min 0 W/m 12,9 km/h (3 Bft) 100,00 %
15.12.2019 23:26 4,3 C 3,9 C 2,8 C 86 % 1007,8 hPa 0,0 l/m 0 min 0 min 0 W/m 16,1 km/h (3 Bft) 100,00 %
15.12.2019 23:28 4,3 C 3,9 C 2,8 C 86 % 1007,9 hPa 0,0 l/m 0 min 0 min 0 W/m 12,9 km/h (3 Bft) 100,00 %
15.12.2019 23:30 4,3 C 3,9 C 2,8 C 86 % 1007,8 hPa 0,0 l/m 0 min 0 min 0 W/m 12,9 km/h (3 Bft) 100,00 %
15.12.2019 23:32 4,3 C 3,3 C 2,8 C 86 % 1007,8 hPa 0,0 l/m 0 min 0 min 0 W/m 12,9 km/h (3 Bft) 97,87 %
15.12.2019 23:34 4,3 C 3,3 C 2,8 C 87 % 1007,8 hPa 0,0 l/m 0 min 0 min 0 W/m 19,3 km/h (3 Bft) 100,00 %
15.12.2019 23:36 4,3 C 3,3 C 2,8 C 87 % 1007,7 hPa 0,0 l/m 0 min 0 min 0 W/m 12,9 km/h (3 Bft) 97,83 %
15.12.2019 23:38 4,3 C 3,3 C 2,8 C 87 % 1007,8 hPa 0,0 l/m 0 min 0 min 0 W/m 12,9 km/h (3 Bft) 97,87 %
15.12.2019 23:40 4,3 C 3,3 C 2,8 C 87 % 1007,8 hPa 0,0 l/m 0 min 0 min 0 W/m 12,9 km/h (3 Bft) 95,74 %
15.12.2019 23:42 4,3 C 3,3 C 2,2 C 87 % 1007,8 hPa 0,0 l/m 0 min 0 min 0 W/m 6,4 km/h (2 Bft) 100,00 %
15.12.2019 23:44 4,2 C 3,3 C 2,2 C 87 % 1007,7 hPa 0,0 l/m 0 min 0 min 0 W/m 19,3 km/h (3 Bft) 100,00 %
15.12.2019 23:46 4,2 C 3,3 C 2,2 C 87 % 1007,8 hPa 0,0 l/m 0 min 0 min 0 W/m 16,1 km/h (3 Bft) 95,65 %
15.12.2019 23:48 4,2 C 3,3 C 2,2 C 87 % 1007,8 hPa 0,0 l/m 0 min 0 min 0 W/m 19,3 km/h (3 Bft) 97,87 %
15.12.2019 23:50 4,1 C 3,3 C 2,8 C 87 % 1007,8 hPa 0,0 l/m 0 min 0 min 0 W/m 19,3 km/h (3 Bft) 100,00 %
15.12.2019 23:52 4,1 C 3,3 C 2,8 C 87 % 1007,9 hPa 0,0 l/m 0 min 0 min 0 W/m 16,1 km/h (3 Bft) 100,00 %
15.12.2019 23:54 4,1 C 3,3 C 2,8 C 87 % 1007,8 hPa 0,0 l/m 0 min 0 min 0 W/m 16,1 km/h (3 Bft) 100,00 %
15.12.2019 23:56 4,1 C 3,3 C 2,2 C 87 % 1007,8 hPa 0,0 l/m 0 min 0 min 0 W/m 16,1 km/h (3 Bft) 95,74 %
15.12.2019 23:58 4,1 C 3,3 C 2,2 C 87 % 1007,8 hPa 0,0 l/m 0 min 0 min 0 W/m 16,1 km/h (3 Bft) 97,87 %
_ Min-Zeit 23:50 22:52 23:42 15:16 05:40 - - - - 21:18 11:24
Minimum _ 4,1 C 3,3 C 2,2 C 75 % 992,4 hPa - - - - 6,4 km/h (2 Bft) 47,37 %
_ Max-Zeit 06:40 12:36 06:04 05:18 23:12 06:46 12:08 02:52 12:22 06:38 00:00
Maximum _ 10,3 C 12,2 C 7,8 C 98 % 1007,9 hPa 0,8 l/m 4 min 2 min 275 W/m 61,2 km/h
SO (7 Bft)
100,00 %
Durchschnitt _ 7,2 C 6,7 C 5,5 C 86 % 1000,7 hPa #4,6 l/m #3:28 h #2:50 h 111 W/m 23,1 km/h (4 Bft) 97,34 %
© 2019 W. Hausmann